Observation data for Caprock Canyons on 02/21/2019      Previous  Date  Next       Current Mesonet Observations  Soil Data  Daily Summary Page  Observations in Plain Language
KQU1 210600Z 20006KT 05/M12 A2986 RMK A01 T00461124  RH  028%=      5-min Rain = 0
KQU1 210601Z 21006KT 05/M12 A2986 RMK A01 T00461123  RH  028%=      5-min Rain = 0
KQU1 210602Z 20006KT 05/M12 A2986 RMK A01 T00461122  RH  028%=      5-min Rain = 0
KQU1 210603Z 20006KT 05/M12 A2986 RMK A01 T00451121  RH  029%=      5-min Rain = 0
KQU1 210604Z 20005KT 04/M12 A2986 RMK A01 T00431121  RH  029%=      5-min Rain = 0
KQU1 210605Z 18004KT 04/M12 A2986 RMK A01 T00411121  RH  030%=      5-min Rain = 0
KQU1 210606Z 19006KT 04/M12 A2986 RMK A01 T00391121  RH  030%=      5-min Rain = 0
KQU1 210607Z 19005KT 04/M12 A2986 RMK A01 T00381121  RH  030%=      5-min Rain = 0
KQU1 210608Z 19005KT 04/M12 A2986 RMK A01 T00371120  RH  031%=      5-min Rain = 0
KQU1 210609Z 20005KT 04/M12 A2986 RMK A01 T00361120  RH  031%=      5-min Rain = 0
KQU1 210610Z 21006KT 04/M12 A2986 RMK A01 T00361119  RH  031%=      5-min Rain = 0
KQU1 210611Z 21006KT 04/M12 A2986 RMK A01 T00361118  RH  031%=      5-min Rain = 0
KQU1 210612Z 21006KT 04/M12 A2986 RMK A01 T00361118  RH  031%=      5-min Rain = 0
KQU1 210613Z 21006KT 04/M12 A2986 RMK A01 T00361118  RH  032%=      5-min Rain = 0
KQU1 210614Z 20006KT 04/M12 A2986 RMK A01 T00351117  RH  032%=      5-min Rain = 0
KQU1 210615Z 21005KT 04/M12 A2986 RMK A01 T00351117  RH  032%=      5-min Rain = 0
KQU1 210616Z 21006KT 04/M12 A2986 RMK A01 T00351118  RH  032%=      5-min Rain = 0
KQU1 210617Z 21007KT 04/M12 A2986 RMK A01 T00351118  RH  032%=      5-min Rain = 0
KQU1 210618Z 21006KT 04/M12 A2986 RMK A01 T00361117  RH  032%=      5-min Rain = 0
KQU1 210619Z 21007KT 04/M12 A2986 RMK A01 T00361117  RH  032%=      5-min Rain = 0
KQU1 210620Z 21007KT 04/M12 A2986 RMK A01 T00371117  RH  031%=      5-min Rain = 0
KQU1 210621Z 21007KT 04/M12 A2986 RMK A01 T00371117  RH  031%=      5-min Rain = 0
KQU1 210622Z 21007KT 04/M12 A2986 RMK A01 T00371117  RH  032%=      5-min Rain = 0
KQU1 210623Z 20009KT 04/M12 A2986 RMK A01 T00381116  RH  031%=      5-min Rain = 0
KQU1 210624Z 21008KT 04/M12 A2986 RMK A01 T00411116  RH  031%=      5-min Rain = 0
KQU1 210625Z 21008KT 04/M12 A2986 RMK A01 T00411116  RH  031%=      5-min Rain = 0
KQU1 210626Z 21008KT 04/M12 A2986 RMK A01 T00411116  RH  031%=      5-min Rain = 0
KQU1 210627Z 21008KT 04/M12 A2986 RMK A01 T00411116  RH  031%=      5-min Rain = 0
KQU1 210628Z 21008KT 04/M12 A2986 RMK A01 T00421115  RH  031%=      5-min Rain = 0
KQU1 210629Z 21008KT 04/M12 A2986 RMK A01 T00421115  RH  031%=      5-min Rain = 0
KQU1 210630Z 21008KT 04/M12 A2986 RMK A01 T00431115  RH  031%=      5-min Rain = 0
KQU1 210631Z 21008KT 04/M12 A2986 RMK A01 T00431115  RH  031%=      5-min Rain = 0
KQU1 210632Z 22008KT 04/M11 A2986 RMK A01 T00421114  RH  031%=      5-min Rain = 0
KQU1 210633Z 22008KT 04/M11 A2986 RMK A01 T00421114  RH  031%=      5-min Rain = 0
KQU1 210634Z 22008KT 04/M11 A2986 RMK A01 T00431113  RH  031%=      5-min Rain = 0
KQU1 210635Z 22007KT 04/M11 A2986 RMK A01 T00441113  RH  031%=      5-min Rain = 0
KQU1 210636Z 22008KT 05/M11 A2986 RMK A01 T00461113  RH  031%=      5-min Rain = 0
KQU1 210637Z 22008KT 05/M11 A2986 RMK A01 T00471114  RH  030%=      5-min Rain = 0
KQU1 210638Z 22008KT 05/M11 A2986 RMK A01 T00481114  RH  030%=      5-min Rain = 0
KQU1 210639Z 22008KT 05/M11 A2986 RMK A01 T00481114  RH  030%=      5-min Rain = 0
KQU1 210640Z 22008KT 05/M11 A2986 RMK A01 T00491114  RH  030%=      5-min Rain = 0
KQU1 210641Z 22008KT 05/M11 A2986 RMK A01 T00501114  RH  029%=      5-min Rain = 0
KQU1 210642Z 21007KT 05/M11 A2986 RMK A01 T00511114  RH  029%=      5-min Rain = 0
KQU1 210643Z 21007KT 05/M11 A2986 RMK A01 T00521114  RH  029%=      5-min Rain = 0
KQU1 210644Z 22008KT 05/M11 A2986 RMK A01 T00531114  RH  029%=      5-min Rain = 0
KQU1 210645Z 22008KT 05/M12 A2986 RMK A01 T00541115  RH  028%=      5-min Rain = 0
KQU1 210646Z 22008KT 06/M11 A2986 RMK A01 T00551114  RH  028%=      5-min Rain = 0
KQU1 210647Z 21008KT 06/M12 A2986 RMK A01 T00551115  RH  028%=      5-min Rain = 0
KQU1 210648Z 22007KT 06/M11 A2986 RMK A01 T00561114  RH  028%=      5-min Rain = 0
KQU1 210649Z 22007KT 06/M11 A2986 RMK A01 T00561114  RH  028%=      5-min Rain = 0
KQU1 210650Z 22007KT 06/M11 A2986 RMK A01 T00551114  RH  028%=      5-min Rain = 0
KQU1 210651Z 22008KT 05/M11 A2986 RMK A01 T00541114  RH  029%=      5-min Rain = 0
KQU1 210652Z 22008KT 06/M11 A2986 RMK A01 T00551114  RH  028%=      5-min Rain = 0
KQU1 210653Z 22007KT 06/M11 A2986 RMK A01 T00551114  RH  028%=      5-min Rain = 0
KQU1 210654Z 22007KT 06/M11 A2986 RMK A01 T00551114  RH  028%=      5-min Rain = 0
KQU1 210655Z 22007KT 06/M11 A2986 RMK A01 T00551114  RH  029%=      5-min Rain = 0
KQU1 210656Z 22007KT 06/M11 A2985 RMK A01 T00551114  RH  029%=      5-min Rain = 0
KQU1 210657Z 22007KT 06/M11 A2986 RMK A01 T00551114  RH  029%=      5-min Rain = 0
KQU1 210658Z 22007KT 06/M11 A2986 RMK A01 T00551113  RH  029%=      5-min Rain = 0
KQU1 210659Z 22007KT 05/M11 A2986 RMK A01 T00541113  RH  029%=      5-min Rain = 0
KQU1 210700Z 22008KT 05/M11 A2986 RMK A01 T00531113  RH  029%=      5-min Rain = 0
KQU1 210701Z 22008KT 05/M11 A2986 RMK A01 T00531113  RH  029%=      5-min Rain = 0
KQU1 210702Z 22008KT 05/M11 A2986 RMK A01 T00531114  RH  029%=      5-min Rain = 0
KQU1 210703Z 22008KT 05/M11 A2986 RMK A01 T00531113  RH  029%=      5-min Rain = 0
KQU1 210704Z 22008KT 05/M11 A2986 RMK A01 T00531113  RH  029%=      5-min Rain = 0
KQU1 210705Z 22008KT 05/M11 A2986 RMK A01 T00531113  RH  029%=      5-min Rain = 0
KQU1 210706Z 22008KT 05/M11 A2986 RMK A01 T00531113  RH  029%=      5-min Rain = 0
KQU1 210707Z 22008KT 05/M11 A2986 RMK A01 T00531113  RH  029%=      5-min Rain = 0
KQU1 210708Z 22008KT 05/M11 A2986 RMK A01 T00531113  RH  029%=      5-min Rain = 0
KQU1 210709Z 22008KT 05/M11 A2986 RMK A01 T00531113  RH  029%=      5-min Rain = 0
KQU1 210710Z 22008KT 05/M11 A2986 RMK A01 T00531113  RH  029%=      5-min Rain = 0
KQU1 210711Z 22008KT 05/M11 A2986 RMK A01 T00531113  RH  029%=      5-min Rain = 0
KQU1 210712Z 22008KT 05/M11 A2986 RMK A01 T00531113  RH  029%=      5-min Rain = 0
KQU1 210713Z 21007KT 05/M11 A2986 RMK A01 T00531112  RH  029%=      5-min Rain = 0
KQU1 210714Z 21008KT 05/M11 A2986 RMK A01 T00531112  RH  029%=      5-min Rain = 0
KQU1 210715Z 21008KT 05/M11 A2985 RMK A01 T00531112  RH  029%=      5-min Rain = 0
KQU1 210716Z 21008KT 05/M11 A2985 RMK A01 T00531112  RH  029%=      5-min Rain = 0
KQU1 210717Z 21007KT 05/M11 A2985 RMK A01 T00531112  RH  029%=      5-min Rain = 0
KQU1 210718Z 21008KT 05/M11 A2985 RMK A01 T00541112  RH  029%=      5-min Rain = 0
KQU1 210719Z 21008KT 05/M11 A2985 RMK A01 T00541112  RH  029%=      5-min Rain = 0
KQU1 210720Z 21008KT 05/M11 A2985 RMK A01 T00541112  RH  029%=      5-min Rain = 0
KQU1 210721Z 21007KT 05/M11 A2985 RMK A01 T00541112  RH  029%=      5-min Rain = 0
KQU1 210722Z 21007KT 05/M11 A2985 RMK A01 T00541111  RH  029%=      5-min Rain = 0
KQU1 210723Z 21007KT 05/M11 A2985 RMK A01 T00541111  RH  029%=      5-min Rain = 0
KQU1 210724Z 21007KT 05/M11 A2985 RMK A01 T00531111  RH  029%=      5-min Rain = 0
KQU1 210725Z 21008KT 05/M11 A2985 RMK A01 T00531111  RH  030%=      5-min Rain = 0
KQU1 210726Z 20007KT 05/M11 A2985 RMK A01 T00521110  RH  030%=      5-min Rain = 0
KQU1 210727Z 20007KT 05/M11 A2985 RMK A01 T00511110  RH  030%=      5-min Rain = 0
KQU1 210728Z 20007KT 05/M11 A2985 RMK A01 T00511110  RH  030%=      5-min Rain = 0
KQU1 210729Z 20007KT 05/M11 A2985 RMK A01 T00501110  RH  030%=      5-min Rain = 0
KQU1 210730Z 20008KT 05/M11 A2985 RMK A01 T00501109  RH  031%=      5-min Rain = 0
KQU1 210731Z 20008KT 05/M11 A2985 RMK A01 T00491109  RH  031%=      5-min Rain = 0
KQU1 210732Z 20008KT 05/M11 A2985 RMK A01 T00481109  RH  031%=      5-min Rain = 0
KQU1 210733Z 20008KT 05/M11 A2985 RMK A01 T00481108  RH  031%=      5-min Rain = 0
KQU1 210734Z 20007KT 05/M11 A2985 RMK A01 T00481108  RH  031%=      5-min Rain = 0
KQU1 210735Z 20008KT 05/M11 A2985 RMK A01 T00481108  RH  031%=      5-min Rain = 0
KQU1 210736Z 20008KT 05/M11 A2985 RMK A01 T00481108  RH  031%=      5-min Rain = 0
KQU1 210737Z 20008KT 05/M11 A2985 RMK A01 T00481107  RH  031%=      5-min Rain = 0
KQU1 210738Z 19008KT 05/M11 A2985 RMK A01 T00481107  RH  031%=      5-min Rain = 0
KQU1 210739Z 20008KT 05/M11 A2985 RMK A01 T00481107  RH  032%=      5-min Rain = 0
KQU1 210740Z 20008KT 05/M11 A2985 RMK A01 T00481107  RH  032%=      5-min Rain = 0
KQU1 210741Z 20009KT 05/M11 A2985 RMK A01 T00471107  RH  032%=      5-min Rain = 0
KQU1 210742Z 20008KT 05/M11 A2985 RMK A01 T00471107  RH  032%=      5-min Rain = 0
KQU1 210743Z 20009KT 05/M11 A2986 RMK A01 T00471106  RH  032%=      5-min Rain = 0
KQU1 210744Z 20009KT 05/M11 A2986 RMK A01 T00471106  RH  032%=      5-min Rain = 0
KQU1 210745Z 20008KT 05/M11 A2986 RMK A01 T00471106  RH  032%=      5-min Rain = 0
KQU1 210746Z 20008KT 05/M11 A2986 RMK A01 T00471105  RH  032%=      5-min Rain = 0
KQU1 210747Z 19008KT 05/M11 A2985 RMK A01 T00461105  RH  032%=      5-min Rain = 0
KQU1 210748Z 19008KT 05/M11 A2985 RMK A01 T00461105  RH  033%=      5-min Rain = 0
KQU1 210749Z 20009KT 05/M10 A2985 RMK A01 T00461104  RH  033%=      5-min Rain = 0
KQU1 210750Z 19008KT 05/M10 A2985 RMK A01 T00451104  RH  033%=      5-min Rain = 0
KQU1 210751Z 19008KT 05/M10 A2985 RMK A01 T00451104  RH  033%=      5-min Rain = 0
KQU1 210752Z 19008KT 05/M10 A2985 RMK A01 T00451104  RH  033%=      5-min Rain = 0
KQU1 210753Z 19008KT 05/M10 A2985 RMK A01 T00451104  RH  033%=      5-min Rain = 0
KQU1 210754Z 20008KT 05/M10 A2985 RMK A01 T00451103  RH  033%=      5-min Rain = 0
KQU1 210755Z 19008KT 04/M10 A2986 RMK A01 T00441103  RH  033%=      5-min Rain = 0
KQU1 210756Z 20008KT 04/M10 A2986 RMK A01 T00441103  RH  034%=      5-min Rain = 0
KQU1 210757Z 19008KT 04/M10 A2986 RMK A01 T00441103  RH  034%=      5-min Rain = 0
KQU1 210758Z 20008KT 04/M10 A2986 RMK A01 T00441102  RH  034%=      5-min Rain = 0
KQU1 210759Z 20009KT 04/M10 A2986 RMK A01 T00431103  RH  034%=      5-min Rain = 0
KQU1 210800Z 20009KT 04/M10 A2986 RMK A01 T00441103  RH  034%=      5-min Rain = 0
KQU1 210801Z 20009KT 04/M10 A2986 RMK A01 T00441103  RH  034%=      5-min Rain = 0
KQU1 210802Z 20008KT 04/M10 A2986 RMK A01 T00441103  RH  034%=      5-min Rain = 0
KQU1 210803Z 20008KT 04/M10 A2986 RMK A01 T00441103  RH  034%=      5-min Rain = 0
KQU1 210804Z 20008KT 04/M10 A2986 RMK A01 T00441103  RH  034%=      5-min Rain = 0
KQU1 210805Z 20008KT 04/M10 A2986 RMK A01 T00441103  RH  034%=      5-min Rain = 0
KQU1 210806Z 20008KT 04/M10 A2986 RMK A01 T00441102  RH  034%=      5-min Rain = 0
KQU1 210807Z 20009KT 04/M10 A2986 RMK A01 T00431103  RH  034%=      5-min Rain = 0
KQU1 210808Z 20009KT 04/M10 A2986 RMK A01 T00431103  RH  034%=      5-min Rain = 0
KQU1 210809Z 20009KT 04/M10 A2986 RMK A01 T00431103  RH  034%=      5-min Rain = 0
KQU1 210810Z 20008KT 04/M10 A2986 RMK A01 T00431102  RH  034%=      5-min Rain = 0
KQU1 210811Z 20008KT 04/M10 A2986 RMK A01 T00431101  RH  034%=      5-min Rain = 0
KQU1 210812Z 20008KT 04/M10 A2986 RMK A01 T00441102  RH  034%=      5-min Rain = 0
KQU1 210813Z 20008KT 04/M10 A2986 RMK A01 T00441102  RH  034%=      5-min Rain = 0
KQU1 210814Z 21009KT 05/M10 A2986 RMK A01 T00451102  RH  033%=      5-min Rain = 0
KQU1 210815Z 21009KT 05/M10 A2986 RMK A01 T00461102  RH  033%=      5-min Rain = 0
KQU1 210816Z 21009KT 05/M10 A2986 RMK A01 T00461102  RH  033%=      5-min Rain = 0
KQU1 210817Z 20008KT 05/M10 A2986 RMK A01 T00461102  RH  033%=      5-min Rain = 0
KQU1 210818Z 20008KT 05/M10 A2986 RMK A01 T00471102  RH  033%=      5-min Rain = 0
KQU1 210819Z 21008KT 05/M10 A2986 RMK A01 T00471102  RH  033%=      5-min Rain = 0
KQU1 210820Z 21009KT 05/M10 A2986 RMK A01 T00471102  RH  033%=      5-min Rain = 0
KQU1 210821Z 21008KT 05/M10 A2986 RMK A01 T00481102  RH  033%=      5-min Rain = 0
KQU1 210822Z 21008KT 05/M10 A2986 RMK A01 T00481102  RH  033%=      5-min Rain = 0
KQU1 210823Z 20008KT 05/M10 A2986 RMK A01 T00481102  RH  033%=      5-min Rain = 0
KQU1 210824Z 20008KT 05/M10 A2986 RMK A01 T00471101  RH  033%=      5-min Rain = 0
KQU1 210825Z 20008KT 05/M10 A2986 RMK A01 T00471101  RH  033%=      5-min Rain = 0
KQU1 210826Z 21008KT 05/M10 A2986 RMK A01 T00471101  RH  033%=      5-min Rain = 0
KQU1 210827Z 20008KT 05/M10 A2986 RMK A01 T00471101  RH  033%=      5-min Rain = 0
KQU1 210828Z 20008KT 05/M10 A2986 RMK A01 T00471101  RH  033%=      5-min Rain = 0
KQU1 210829Z 20008KT 05/M10 A2986 RMK A01 T00471100  RH  033%=      5-min Rain = 0
KQU1 210830Z 21008KT 05/M10 A2986 RMK A01 T00471100  RH  034%=      5-min Rain = 0
KQU1 210831Z 21008KT 05/M10 A2986 RMK A01 T00471100  RH  034%=      5-min Rain = 0
KQU1 210832Z 21008KT 05/M10 A2986 RMK A01 T00471100  RH  034%=      5-min Rain = 0
KQU1 210833Z 20008KT 05/M10 A2986 RMK A01 T00471100  RH  034%=      5-min Rain = 0
KQU1 210834Z 20008KT 05/M10 A2986 RMK A01 T00471099  RH  034%=      5-min Rain = 0
KQU1 210835Z 20009KT 05/M10 A2986 RMK A01 T00481099  RH  034%=      5-min Rain = 0
KQU1 210836Z 20009KT 05/M10 A2986 RMK A01 T00481098  RH  034%=      5-min Rain = 0
KQU1 210837Z 21009KT 05/M10 A2986 RMK A01 T00481098  RH  034%=      5-min Rain = 0
KQU1 210838Z 21009KT 05/M10 A2986 RMK A01 T00481098  RH  034%=      5-min Rain = 0
KQU1 210839Z 20009KT 05/M10 A2986 RMK A01 T00491098  RH  034%=      5-min Rain = 0
KQU1 210840Z 20009KT 05/M10 A2986 RMK A01 T00491098  RH  034%=      5-min Rain = 0
KQU1 210841Z 20008KT 05/M10 A2986 RMK A01 T00491098  RH  034%=      5-min Rain = 0
KQU1 210842Z 20009KT 05/M10 A2986 RMK A01 T00501098  RH  034%=      5-min Rain = 0
KQU1 210843Z 20009KT 05/M10 A2986 RMK A01 T00501097  RH  034%=      5-min Rain = 0
KQU1 210844Z 20008KT 05/M10 A2986 RMK A01 T00501097  RH  034%=      5-min Rain = 0
KQU1 210845Z 20008KT 05/M10 A2986 RMK A01 T00501097  RH  034%=      5-min Rain = 0
KQU1 210846Z 20008KT 05/M10 A2986 RMK A01 T00501097  RH  034%=      5-min Rain = 0
KQU1 210847Z 20008KT 05/M10 A2986 RMK A01 T00491096  RH  034%=      5-min Rain = 0
KQU1 210848Z 20008KT 05/M10 A2986 RMK A01 T00491096  RH  034%=      5-min Rain = 0
KQU1 210849Z 20009KT 05/M10 A2986 RMK A01 T00491096  RH  034%=      5-min Rain = 0
KQU1 210850Z 20008KT 05/M10 A2986 RMK A01 T00491096  RH  034%=      5-min Rain = 0
KQU1 210851Z 20008KT 05/M10 A2986 RMK A01 T00491096  RH  034%=      5-min Rain = 0
KQU1 210852Z 20008KT 05/M10 A2986 RMK A01 T00491096  RH  034%=      5-min Rain = 0
KQU1 210853Z 20008KT 05/M10 A2986 RMK A01 T00491096  RH  034%=      5-min Rain = 0
KQU1 210854Z 20008KT 05/M10 A2986 RMK A01 T00491097  RH  034%=      5-min Rain = 0
KQU1 210855Z 20008KT 05/M10 A2986 RMK A01 T00501097  RH  034%=      5-min Rain = 0
KQU1 210856Z 20008KT 05/M10 A2986 RMK A01 T00501097  RH  034%=      5-min Rain = 0
KQU1 210857Z 20008KT 05/M10 A2986 RMK A01 T00501097  RH  034%=      5-min Rain = 0
KQU1 210858Z 20008KT 05/M10 A2985 RMK A01 T00501097  RH  034%=      5-min Rain = 0
KQU1 210859Z 20008KT 05/M10 A2985 RMK A01 T00511097  RH  034%=      5-min Rain = 0
KQU1 210900Z 20008KT 05/M10 A2985 RMK A01 T00501097  RH  034%=      5-min Rain = 0
KQU1 210901Z 21008KT 05/M10 A2986 RMK A01 T00501097  RH  034%=      5-min Rain = 0
KQU1 210902Z 21008KT 05/M10 A2986 RMK A01 T00501096  RH  034%=      5-min Rain = 0
KQU1 210903Z 20008KT 05/M10 A2986 RMK A01 T00501096  RH  034%=      5-min Rain = 0
KQU1 210904Z 20008KT 05/M10 A2986 RMK A01 T00501097  RH  034%=      5-min Rain = 0
KQU1 210905Z 21008KT 05/M10 A2986 RMK A01 T00501096  RH  034%=      5-min Rain = 0
KQU1 210906Z 21008KT 05/M10 A2986 RMK A01 T00501096  RH  034%=      5-min Rain = 0
KQU1 210907Z 20008KT 05/M10 A2986 RMK A01 T00501096  RH  034%=      5-min Rain = 0
KQU1 210908Z 20008KT 05/M10 A2986 RMK A01 T00511096  RH  034%=      5-min Rain = 0
KQU1 210909Z 21008KT 05/M10 A2986 RMK A01 T00511096  RH  034%=      5-min Rain = 0
KQU1 210910Z 21008KT 05/M10 A2986 RMK A01 T00511096  RH  034%=      5-min Rain = 0
KQU1 210911Z 21008KT 05/M10 A2986 RMK A01 T00511096  RH  034%=      5-min Rain = 0
KQU1 210912Z 21008KT 05/M10 A2986 RMK A01 T00511096  RH  034%=      5-min Rain = 0
KQU1 210913Z 20008KT 05/M10 A2986 RMK A01 T00511096  RH  034%=      5-min Rain = 0
KQU1 210914Z 20008KT 05/M10 A2986 RMK A01 T00511096  RH  034%=      5-min Rain = 0
KQU1 210915Z 20008KT 05/M10 A2986 RMK A01 T00521096  RH  033%=      5-min Rain = 0
KQU1 210916Z 20008KT 05/M10 A2986 RMK A01 T00521096  RH  033%=      5-min Rain = 0
KQU1 210917Z 20008KT 05/M10 A2986 RMK A01 T00521096  RH  033%=      5-min Rain = 0
KQU1 210918Z 20008KT 05/M10 A2986 RMK A01 T00521097  RH  033%=      5-min Rain = 0
KQU1 210919Z 20008KT 05/M10 A2986 RMK A01 T00521097  RH  033%=      5-min Rain = 0
KQU1 210920Z 21008KT 05/M10 A2986 RMK A01 T00521097  RH  033%=      5-min Rain = 0
KQU1 210921Z 20008KT 05/M10 A2986 RMK A01 T00521097  RH  033%=      5-min Rain = 0
KQU1 210922Z 20008KT 05/M10 A2986 RMK A01 T00521097  RH  033%=      5-min Rain = 0
KQU1 210923Z 20008KT 05/M10 A2986 RMK A01 T00521097  RH  033%=      5-min Rain = 0
KQU1 210924Z 20008KT 05/M10 A2986 RMK A01 T00521097  RH  033%=      5-min Rain = 0
KQU1 210925Z 20008KT 05/M10 A2986 RMK A01 T00521097  RH  033%=      5-min Rain = 0
KQU1 210926Z 20008KT 05/M10 A2986 RMK A01 T00521097  RH  033%=      5-min Rain = 0
KQU1 210927Z 20008KT 05/M10 A2986 RMK A01 T00521097  RH  033%=      5-min Rain = 0
KQU1 210928Z 20007KT 05/M10 A2986 RMK A01 T00521097  RH  033%=      5-min Rain = 0
KQU1 210929Z 20007KT 05/M10 A2986 RMK A01 T00521097  RH  033%=      5-min Rain = 0
KQU1 210930Z 20007KT 05/M10 A2986 RMK A01 T00521097  RH  033%=      5-min Rain = 0
KQU1 210931Z 20008KT 05/M10 A2986 RMK A01 T00511097  RH  033%=      5-min Rain = 0
KQU1 210932Z 20008KT 05/M10 A2986 RMK A01 T00511096  RH  034%=      5-min Rain = 0
KQU1 210933Z 20007KT 05/M10 A2986 RMK A01 T00511097  RH  034%=      5-min Rain = 0
KQU1 210934Z 20007KT 05/M10 A2986 RMK A01 T00511096  RH  034%=      5-min Rain = 0
KQU1 210935Z 20007KT 05/M10 A2986 RMK A01 T00511096  RH  034%=      5-min Rain = 0
KQU1 210936Z 20007KT 05/M10 A2986 RMK A01 T00501096  RH  034%=      5-min Rain = 0
KQU1 210937Z 20007KT 05/M10 A2985 RMK A01 T00501096  RH  034%=      5-min Rain = 0
KQU1 210938Z 20007KT 05/M10 A2985 RMK A01 T00501096  RH  034%=      5-min Rain = 0
KQU1 210939Z 20007KT 05/M10 A2985 RMK A01 T00501095  RH  034%=      5-min Rain = 0
KQU1 210940Z 20007KT 05/M10 A2985 RMK A01 T00491096  RH  034%=      5-min Rain = 0
KQU1 210941Z 19007KT 05/M10 A2985 RMK A01 T00491096  RH  034%=      5-min Rain = 0
KQU1 210942Z 19007KT 05/M10 A2985 RMK A01 T00491096  RH  034%=      5-min Rain = 0
KQU1 210943Z 19007KT 05/M10 A2985 RMK A01 T00491096  RH  034%=      5-min Rain = 0
KQU1 210944Z 19007KT 05/M10 A2985 RMK A01 T00491096  RH  034%=      5-min Rain = 0
KQU1 210945Z 19007KT 05/M10 A2985 RMK A01 T00491096  RH  034%=      5-min Rain = 0
KQU1 210946Z 19007KT 05/M10 A2985 RMK A01 T00491095  RH  034%=      5-min Rain = 0
KQU1 210947Z 19007KT 05/M10 A2985 RMK A01 T00491096  RH  034%=      5-min Rain = 0
KQU1 210948Z 19008KT 05/M10 A2985 RMK A01 T00481096  RH  034%=      5-min Rain = 0
KQU1 210949Z 19007KT 05/M10 A2985 RMK A01 T00481096  RH  034%=      5-min Rain = 0
KQU1 210950Z 19007KT 05/M10 A2985 RMK A01 T00481096  RH  035%=      5-min Rain = 0
KQU1 210951Z 19008KT 05/M10 A2985 RMK A01 T00481096  RH  034%=      5-min Rain = 0
KQU1 210952Z 19007KT 05/M10 A2985 RMK A01 T00471095  RH  035%=      5-min Rain = 0
KQU1 210953Z 19008KT 05/M10 A2986 RMK A01 T00471095  RH  035%=      5-min Rain = 0
KQU1 210954Z 19008KT 05/M10 A2986 RMK A01 T00471095  RH  035%=      5-min Rain = 0
KQU1 210955Z 18008KT 05/M10 A2986 RMK A01 T00461095  RH  035%=      5-min Rain = 0
KQU1 210956Z 18008KT 05/M09 A2986 RMK A01 T00451094  RH  035%=      5-min Rain = 0
KQU1 210957Z 18008KT 05/M09 A2986 RMK A01 T00451094  RH  036%=      5-min Rain = 0
KQU1 210958Z 17007KT 04/M10 A2986 RMK A01 T00441095  RH  036%=      5-min Rain = 0
KQU1 210959Z 17007KT 04/M10 A2986 RMK A01 T00441096  RH  035%=      5-min Rain = 0
KQU1 211000Z 18007KT 04/M10 A2986 RMK A01 T00441096  RH  035%=      5-min Rain = 0
KQU1 211001Z 18008KT 04/M10 A2986 RMK A01 T00441096  RH  035%=      5-min Rain = 0
KQU1 211002Z 18008KT 05/M10 A2986 RMK A01 T00451098  RH  035%=      5-min Rain = 0
KQU1 211003Z 17008KT 05/M10 A2986 RMK A01 T00451099  RH  034%=      5-min Rain = 0
KQU1 211004Z 17008KT 05/M10 A2986 RMK A01 T00461099  RH  034%=      5-min Rain = 0
KQU1 211005Z 17008KT 05/M10 A2986 RMK A01 T00461099  RH  034%=      5-min Rain = 0
KQU1 211006Z 17008KT 05/M10 A2986 RMK A01 T00451099  RH  034%=      5-min Rain = 0
KQU1 211007Z 17007KT 05/M10 A2986 RMK A01 T00451099  RH  034%=      5-min Rain = 0
KQU1 211008Z 17008KT 05/M10 A2986 RMK A01 T00451100  RH  034%=      5-min Rain = 0
KQU1 211009Z 17007KT 05/M10 A2986 RMK A01 T00451100  RH  034%=      5-min Rain = 0
KQU1 211010Z 17008KT 05/M10 A2986 RMK A01 T00451100  RH  034%=      5-min Rain = 0
KQU1 211011Z 17008KT 04/M10 A2986 RMK A01 T00441099  RH  034%=      5-min Rain = 0
KQU1 211012Z 17008KT 04/M10 A2986 RMK A01 T00441099  RH  034%=      5-min Rain = 0
KQU1 211013Z 17008KT 04/M10 A2986 RMK A01 T00441099  RH  035%=      5-min Rain = 0
KQU1 211014Z 17008KT 04/M10 A2986 RMK A01 T00441099  RH  035%=      5-min Rain = 0
KQU1 211015Z 17008KT 04/M10 A2986 RMK A01 T00431098  RH  035%=      5-min Rain = 0
KQU1 211016Z 17008KT 04/M10 A2986 RMK A01 T00431098  RH  035%=      5-min Rain = 0
KQU1 211017Z 17008KT 04/M10 A2986 RMK A01 T00431098  RH  035%=      5-min Rain = 0
KQU1 211018Z 17009KT 04/M10 A2986 RMK A01 T00431098  RH  035%=      5-min Rain = 0
KQU1 211019Z 17009KT 04/M10 A2986 RMK A01 T00431098  RH  035%=      5-min Rain = 0
KQU1 211020Z 17008KT 04/M10 A2986 RMK A01 T00431097  RH  035%=      5-min Rain = 0
KQU1 211021Z 17008KT 04/M10 A2986 RMK A01 T00431097  RH  035%=      5-min Rain = 0
KQU1 211022Z 17008KT 04/M10 A2986 RMK A01 T00431096  RH  036%=      5-min Rain = 0
KQU1 211023Z 17008KT 04/M10 A2986 RMK A01 T00431096  RH  036%=      5-min Rain = 0
KQU1 211024Z 17008KT 04/M10 A2986 RMK A01 T00431095  RH  036%=      5-min Rain = 0
KQU1 211025Z 17008KT 04/M10 A2986 RMK A01 T00421095  RH  036%=      5-min Rain = 0
KQU1 211026Z 17009KT 04/M09 A2986 RMK A01 T00421094  RH  036%=      5-min Rain = 0
KQU1 211027Z 16009KT 04/M09 A2986 RMK A01 T00421094  RH  036%=      5-min Rain = 0
KQU1 211028Z 17008KT 04/M09 A2986 RMK A01 T00421094  RH  036%=      5-min Rain = 0
KQU1 211029Z 17008KT 04/M09 A2986 RMK A01 T00421093  RH  037%=      5-min Rain = 0
KQU1 211030Z 16009KT 04/M09 A2986 RMK A01 T00421092  RH  037%=      5-min Rain = 0
KQU1 211031Z 16009KT 04/M09 A2986 RMK A01 T00421092  RH  037%=      5-min Rain = 0
KQU1 211032Z 16008KT 04/M09 A2986 RMK A01 T00411092  RH  037%=      5-min Rain = 0
KQU1 211033Z 17009KT 04/M09 A2986 RMK A01 T00411091  RH  037%=      5-min Rain = 0
KQU1 211034Z 17008KT 04/M09 A2986 RMK A01 T00411091  RH  038%=      5-min Rain = 0
KQU1 211035Z 17008KT 04/M09 A2986 RMK A01 T00411090  RH  038%=      5-min Rain = 0
KQU1 211036Z 17008KT 04/M09 A2986 RMK A01 T00401090  RH  038%=      5-min Rain = 0
KQU1 211037Z 17008KT 04/M09 A2986 RMK A01 T00401089  RH  038%=      5-min Rain = 0
KQU1 211038Z 17008KT 04/M09 A2986 RMK A01 T00401089  RH  038%=      5-min Rain = 0
KQU1 211039Z 17009KT 04/M09 A2986 RMK A01 T00401088  RH  039%=      5-min Rain = 0
KQU1 211040Z 17009KT 04/M09 A2986 RMK A01 T00401088  RH  039%=      5-min Rain = 0
KQU1 211041Z 18008KT 04/M09 A2986 RMK A01 T00401088  RH  039%=      5-min Rain = 0
KQU1 211042Z 18008KT 04/M09 A2986 RMK A01 T00401087  RH  039%=      5-min Rain = 0
KQU1 211043Z 18008KT 04/M09 A2986 RMK A01 T00401087  RH  039%=      5-min Rain = 0
KQU1 211044Z 18007KT 04/M09 A2986 RMK A01 T00401087  RH  039%=      5-min Rain = 0
KQU1 211045Z 18007KT 04/M09 A2986 RMK A01 T00401087  RH  039%=      5-min Rain = 0
KQU1 211046Z 18007KT 04/M09 A2986 RMK A01 T00401087  RH  039%=      5-min Rain = 0
KQU1 211047Z 18007KT 04/M09 A2986 RMK A01 T00391087  RH  039%=      5-min Rain = 0
KQU1 211048Z 18007KT 04/M09 A2986 RMK A01 T00391086  RH  039%=      5-min Rain = 0
KQU1 211049Z 19007KT 04/M09 A2986 RMK A01 T00391086  RH  040%=      5-min Rain = 0
KQU1 211050Z 19007KT 04/M09 A2986 RMK A01 T00391086  RH  040%=      5-min Rain = 0
KQU1 211051Z 19007KT 04/M09 A2986 RMK A01 T00391086  RH  040%=      5-min Rain = 0
KQU1 211052Z 19007KT 04/M09 A2986 RMK A01 T00381086  RH  040%=      5-min Rain = 0
KQU1 211053Z 19007KT 04/M09 A2986 RMK A01 T00381085  RH  040%=      5-min Rain = 0
KQU1 211054Z 19007KT 04/M09 A2986 RMK A01 T00381085  RH  040%=      5-min Rain = 0
KQU1 211055Z 19007KT 04/M09 A2986 RMK A01 T00381085  RH  040%=      5-min Rain = 0
KQU1 211056Z 20007KT 04/M09 A2986 RMK A01 T00371085  RH  040%=      5-min Rain = 0
KQU1 211057Z 20007KT 04/M09 A2986 RMK A01 T00371085  RH  040%=      5-min Rain = 0
KQU1 211058Z 20007KT 04/M09 A2986 RMK A01 T00371085  RH  041%=      5-min Rain = 0
KQU1 211059Z 19007KT 04/M08 A2986 RMK A01 T00371084  RH  041%=      5-min Rain = 0
KQU1 211100Z 20007KT 04/M08 A2986 RMK A01 T00361084  RH  041%=      5-min Rain = 0
KQU1 211101Z 19008KT 04/M08 A2986 RMK A01 T00361084  RH  041%=      5-min Rain = 0
KQU1 211102Z 19008KT 04/M08 A2986 RMK A01 T00361083  RH  041%=      5-min Rain = 0
KQU1 211103Z 19008KT 04/M08 A2986 RMK A01 T00361083  RH  041%=      5-min Rain = 0
KQU1 211104Z 19007KT 04/M08 A2986 RMK A01 T00361083  RH  042%=      5-min Rain = 0
KQU1 211105Z 19007KT 04/M08 A2986 RMK A01 T00351083  RH  042%=      5-min Rain = 0
KQU1 211106Z 19007KT 04/M08 A2986 RMK A01 T00351082  RH  042%=      5-min Rain = 0
KQU1 211107Z 18007KT 04/M08 A2986 RMK A01 T00351082  RH  042%=      5-min Rain = 0
KQU1 211108Z 18006KT 04/M08 A2986 RMK A01 T00351082  RH  042%=      5-min Rain = 0
KQU1 211109Z 19007KT 04/M08 A2985 RMK A01 T00351082  RH  042%=      5-min Rain = 0
KQU1 211110Z 19007KT 04/M08 A2985 RMK A01 T00351082  RH  042%=      5-min Rain = 0
KQU1 211111Z 19007KT 04/M08 A2986 RMK A01 T00351082  RH  042%=      5-min Rain = 0
KQU1 211112Z 19007KT 04/M08 A2986 RMK A01 T00351082  RH  042%=      5-min Rain = 0
KQU1 211113Z 19007KT 04/M08 A2986 RMK A01 T00351081  RH  042%=      5-min Rain = 0
KQU1 211114Z 19007KT 03/M08 A2986 RMK A01 T00341081  RH  042%=      5-min Rain = 0
KQU1 211115Z 19007KT 03/M08 A2986 RMK A01 T00341081  RH  043%=      5-min Rain = 0
KQU1 211116Z 19007KT 03/M08 A2986 RMK A01 T00341081  RH  043%=      5-min Rain = 0
KQU1 211117Z 19007KT 03/M08 A2986 RMK A01 T00341081  RH  043%=      5-min Rain = 0
KQU1 211118Z 18007KT 03/M08 A2985 RMK A01 T00341081  RH  043%=      5-min Rain = 0
KQU1 211119Z 18007KT 03/M08 A2985 RMK A01 T00341081  RH  043%=      5-min Rain = 0
KQU1 211120Z 19007KT 03/M08 A2985 RMK A01 T00341081  RH  043%=      5-min Rain = 0
KQU1 211121Z 19006KT 03/M08 A2985 RMK A01 T00341081  RH  043%=      5-min Rain = 0
KQU1 211122Z 18006KT 03/M08 A2985 RMK A01 T00341080  RH  043%=      5-min Rain = 0
KQU1 211123Z 18005KT 03/M08 A2985 RMK A01 T00341081  RH  043%=      5-min Rain = 0
KQU1 211124Z 19005KT 03/M08 A2985 RMK A01 T00341080  RH  043%=      5-min Rain = 0
KQU1 211125Z 19005KT 03/M08 A2985 RMK A01 T00341080  RH  043%=      5-min Rain = 0
KQU1 211126Z 20006KT 03/M08 A2986 RMK A01 T00341080  RH  043%=      5-min Rain = 0
KQU1 211127Z 20006KT 03/M08 A2986 RMK A01 T00341080  RH  043%=      5-min Rain = 0
KQU1 211128Z 20005KT 03/M08 A2986 RMK A01 T00341080  RH  043%=      5-min Rain = 0
KQU1 211129Z 21006KT 03/M08 A2986 RMK A01 T00341080  RH  043%=      5-min Rain = 0
KQU1 211130Z 21006KT 03/M08 A2986 RMK A01 T00341080  RH  043%=      5-min Rain = 0
KQU1 211131Z 20007KT 03/M08 A2986 RMK A01 T00341080  RH  043%=      5-min Rain = 0
KQU1 211132Z 20006KT 03/M08 A2986 RMK A01 T00341080  RH  043%=      5-min Rain = 0
KQU1 211133Z 19006KT 04/M08 A2986 RMK A01 T00351080  RH  043%=      5-min Rain = 0
KQU1 211134Z 19006KT 04/M08 A2986 RMK A01 T00351080  RH  043%=      5-min Rain = 0
KQU1 211135Z 18006KT 04/M08 A2986 RMK A01 T00351080  RH  043%=      5-min Rain = 0
KQU1 211136Z 18007KT 04/M08 A2986 RMK A01 T00361080  RH  043%=      5-min Rain = 0
KQU1 211137Z 18007KT 04/M08 A2986 RMK A01 T00361080  RH  043%=      5-min Rain = 0
KQU1 211138Z 18006KT 04/M08 A2986 RMK A01 T00361080  RH  042%=      5-min Rain = 0
KQU1 211139Z 18007KT 04/M08 A2986 RMK A01 T00371080  RH  042%=      5-min Rain = 0
KQU1 211140Z 18007KT 04/M08 A2986 RMK A01 T00371080  RH  042%=      5-min Rain = 0
KQU1 211141Z 17007KT 04/M08 A2986 RMK A01 T00371080  RH  042%=      5-min Rain = 0
KQU1 211142Z 17007KT 04/M08 A2986 RMK A01 T00381080  RH  042%=      5-min Rain = 0
KQU1 211143Z 17006KT 04/M08 A2986 RMK A01 T00381080  RH  042%=      5-min Rain = 0
KQU1 211144Z 17006KT 04/M08 A2986 RMK A01 T00381080  RH  042%=      5-min Rain = 0
KQU1 211145Z 17006KT 04/M08 A2986 RMK A01 T00381080  RH  042%=      5-min Rain = 0
KQU1 211146Z 18006KT 04/M08 A2986 RMK A01 T00381080  RH  042%=      5-min Rain = 0
KQU1 211147Z 17006KT 04/M08 A2986 RMK A01 T00371079  RH  042%=      5-min Rain = 0
KQU1 211148Z 17005KT 04/M08 A2986 RMK A01 T00371080  RH  042%=      5-min Rain = 0
KQU1 211149Z 16006KT 04/M08 A2986 RMK A01 T00371080  RH  042%=      5-min Rain = 0
KQU1 211150Z 17005KT 04/M08 A2986 RMK A01 T00371079  RH  042%=      5-min Rain = 0
KQU1 211151Z 17005KT 04/M08 A2986 RMK A01 T00371079  RH  042%=      5-min Rain = 0
KQU1 211152Z 18005KT 04/M08 A2986 RMK A01 T00371079  RH  043%=      5-min Rain = 0
KQU1 211153Z 18005KT 04/M08 A2986 RMK A01 T00371079  RH  043%=      5-min Rain = 0
KQU1 211154Z 18004KT 04/M08 A2986 RMK A01 T00361079  RH  043%=      5-min Rain = 0
KQU1 211155Z 17004KT 04/M08 A2986 RMK A01 T00361078  RH  043%=      5-min Rain = 0
KQU1 211156Z 19004KT 04/M08 A2986 RMK A01 T00361078  RH  043%=      5-min Rain = 0
KQU1 211157Z 19004KT 04/M08 A2986 RMK A01 T00351079  RH  043%=      5-min Rain = 0
KQU1 211158Z 19004KT 04/M08 A2986 RMK A01 T00351078  RH  043%=      5-min Rain = 0
KQU1 211159Z 19004KT 04/M08 A2986 RMK A01 T00351078  RH  043%=      5-min Rain = 0
KQU1 211200Z 19003KT 04/M08 A2986 RMK A01 T00351079  RH  043%=      5-min Rain = 0
KQU1 211201Z 18004KT 04/M08 A2986 RMK A01 T00351079  RH  043%=      5-min Rain = 0
KQU1 211202Z 19005KT 04/M08 A2986 RMK A01 T00351078  RH  043%=      5-min Rain = 0
KQU1 211203Z 20005KT 04/M08 A2986 RMK A01 T00351078  RH  043%=      5-min Rain = 0
KQU1 211204Z 19005KT 04/M08 A2987 RMK A01 T00351078  RH  043%=      5-min Rain = 0
KQU1 211205Z 19006KT 04/M08 A2987 RMK A01 T00351078  RH  043%=      5-min Rain = 0
KQU1 211206Z 19005KT 04/M08 A2987 RMK A01 T00351078  RH  043%=      5-min Rain = 0
KQU1 211207Z 19006KT 04/M08 A2987 RMK A01 T00351077  RH  043%=      5-min Rain = 0
KQU1 211208Z 19005KT 04/M08 A2987 RMK A01 T00351078  RH  043%=      5-min Rain = 0
KQU1 211209Z 19005KT 04/M08 A2987 RMK A01 T00361077  RH  043%=      5-min Rain = 0
KQU1 211210Z 19005KT 04/M08 A2987 RMK A01 T00351078  RH  043%=      5-min Rain = 0
KQU1 211211Z 18005KT 04/M08 A2987 RMK A01 T00351078  RH  043%=      5-min Rain = 0
KQU1 211212Z 17006KT 04/M08 A2987 RMK A01 T00351077  RH  044%=      5-min Rain = 0
KQU1 211213Z 17006KT 04/M08 A2987 RMK A01 T00351077  RH  044%=      5-min Rain = 0
KQU1 211214Z 17006KT 04/M08 A2987 RMK A01 T00351077  RH  044%=      5-min Rain = 0
KQU1 211215Z 17006KT 03/M08 A2987 RMK A01 T00341077  RH  044%=      5-min Rain = 0
KQU1 211216Z 17005KT 03/M08 A2987 RMK A01 T00341077  RH  044%=      5-min Rain = 0
KQU1 211217Z 17005KT 03/M08 A2986 RMK A01 T00341077  RH  044%=      5-min Rain = 0
KQU1 211218Z 17005KT 03/M08 A2986 RMK A01 T00341077  RH  044%=      5-min Rain = 0
KQU1 211219Z 17005KT 03/M08 A2986 RMK A01 T00331076  RH  045%=      5-min Rain = 0
KQU1 211220Z 17005KT 03/M08 A2986 RMK A01 T00331076  RH  045%=      5-min Rain = 0
KQU1 211221Z 19005KT 03/M08 A2986 RMK A01 T00331075  RH  045%=      5-min Rain = 0
KQU1 211222Z 19005KT 03/M08 A2986 RMK A01 T00331075  RH  045%=      5-min Rain = 0
KQU1 211223Z 18004KT 03/M08 A2986 RMK A01 T00331076  RH  045%=      5-min Rain = 0
KQU1 211224Z 17005KT 03/M08 A2986 RMK A01 T00341075  RH  045%=      5-min Rain = 0
KQU1 211225Z 17006KT 03/M08 A2986 RMK A01 T00341076  RH  045%=      5-min Rain = 0
KQU1 211226Z 18006KT 03/M08 A2987 RMK A01 T00341075  RH  045%=      5-min Rain = 0
KQU1 211227Z 18006KT 03/M08 A2987 RMK A01 T00341075  RH  045%=      5-min Rain = 0
KQU1 211228Z 17005KT 03/M08 A2986 RMK A01 T00341076  RH  044%=      5-min Rain = 0
KQU1 211229Z 17005KT 04/M08 A2986 RMK A01 T00351076  RH  044%=      5-min Rain = 0
KQU1 211230Z 19005KT 04/M08 A2986 RMK A01 T00351075  RH  044%=      5-min Rain = 0
KQU1 211231Z 19005KT 04/M08 A2986 RMK A01 T00351076  RH  044%=      5-min Rain = 0
KQU1 211232Z 19004KT 04/M08 A2986 RMK A01 T00351076  RH  044%=      5-min Rain = 0
KQU1 211233Z 18004KT 03/M08 A2986 RMK A01 T00341076  RH  044%=      5-min Rain = 0
KQU1 211234Z 18004KT 03/M08 A2986 RMK A01 T00341076  RH  044%=      5-min Rain = 0
KQU1 211235Z 19004KT 03/M08 A2986 RMK A01 T00341075  RH  045%=      5-min Rain = 0
KQU1 211236Z 19004KT 03/M08 A2986 RMK A01 T00341075  RH  045%=      5-min Rain = 0
KQU1 211237Z 18004KT 03/M07 A2986 RMK A01 T00331074  RH  045%=      5-min Rain = 0
KQU1 211238Z 19004KT 03/M07 A2986 RMK A01 T00331074  RH  045%=      5-min Rain = 0
KQU1 211239Z 18004KT 03/M07 A2986 RMK A01 T00321074  RH  045%=      5-min Rain = 0
KQU1 211240Z 19004KT 03/M08 A2986 RMK A01 T00321075  RH  045%=      5-min Rain = 0
KQU1 211241Z 19004KT 03/M08 A2986 RMK A01 T00321075  RH  045%=      5-min Rain = 0
KQU1 211242Z 19004KT 03/M08 A2986 RMK A01 T00321075  RH  046%=      5-min Rain = 0
KQU1 211243Z 20005KT 03/M08 A2986 RMK A01 T00321075  RH  045%=      5-min Rain = 0
KQU1 211244Z 20005KT 03/M08 A2986 RMK A01 T00321075  RH  045%=      5-min Rain = 0
KQU1 211245Z 20004KT 03/M08 A2986 RMK A01 T00321075  RH  045%=      5-min Rain = 0
KQU1 211246Z 19004KT 03/M07 A2986 RMK A01 T00331074  RH  045%=      5-min Rain = 0
KQU1 211247Z 18004KT 03/M08 A2986 RMK A01 T00331075  RH  045%=      5-min Rain = 0
KQU1 211248Z 20004KT 03/M08 A2986 RMK A01 T00341075  RH  045%=      5-min Rain = 0
KQU1 211249Z 20004KT 03/M08 A2987 RMK A01 T00341075  RH  045%=      5-min Rain = 0
KQU1 211250Z 19004KT 03/M07 A2987 RMK A01 T00341074  RH  045%=      5-min Rain = 0
KQU1 211251Z 19004KT 03/M07 A2986 RMK A01 T00341074  RH  045%=      5-min Rain = 0
KQU1 211252Z 18004KT 03/M07 A2986 RMK A01 T00341074  RH  045%=      5-min Rain = 0
KQU1 211253Z 19004KT 03/M07 A2987 RMK A01 T00331074  RH  045%=      5-min Rain = 0
KQU1 211254Z 20004KT 03/M07 A2987 RMK A01 T00331074  RH  045%=      5-min Rain = 0
KQU1 211255Z 19004KT 03/M07 A2987 RMK A01 T00331074  RH  045%=      5-min Rain = 0
KQU1 211256Z 18003KT 03/M07 A2986 RMK A01 T00331074  RH  045%=      5-min Rain = 0
KQU1 211257Z 18003KT 03/M07 A2986 RMK A01 T00331073  RH  046%=      5-min Rain = 0
KQU1 211258Z 18003KT 03/M07 A2986 RMK A01 T00331073  RH  046%=      5-min Rain = 0
KQU1 211259Z 20003KT 03/M07 A2986 RMK A01 T00331073  RH  046%=      5-min Rain = 0
KQU1 211300Z 22004KT 03/M07 A2987 RMK A01 T00331073  RH  046%=      5-min Rain = 0
KQU1 211301Z 22004KT 03/M07 A2987 RMK A01 T00321073  RH  046%=      5-min Rain = 0
KQU1 211302Z 21003KT 03/M07 A2986 RMK A01 T00321073  RH  046%=      5-min Rain = 0
KQU1 211303Z 18003KT 03/M07 A2986 RMK A01 T00321073  RH  046%=      5-min Rain = 0
KQU1 211304Z 15003KT 03/M07 A2986 RMK A01 T00321073  RH  046%=      5-min Rain = 0
KQU1 211305Z 14004KT 03/M07 A2986 RMK A01 T00321073  RH  046%=      5-min Rain = 0
KQU1 211306Z 14004KT 03/M07 A2986 RMK A01 T00321073  RH  046%=      5-min Rain = 0
KQU1 211307Z 15003KT 03/M07 A2986 RMK A01 T00321073  RH  046%=      5-min Rain = 0
KQU1 211308Z 16002KT 03/M07 A2986 RMK A01 T00321073  RH  046%=      5-min Rain = 0
KQU1 211309Z 18002KT 03/M07 A2986 RMK A01 T00311073  RH  046%=      5-min Rain = 0
KQU1 211310Z 19002KT 03/M07 A2986 RMK A01 T00311072  RH  047%=      5-min Rain = 0
KQU1 211311Z 19001KT 03/M07 A2986 RMK A01 T00311072  RH  047%=      5-min Rain = 0
KQU1 211312Z 18001KT 03/M07 A2986 RMK A01 T00301072  RH  047%=      5-min Rain = 0
KQU1 211313Z 18000KT 03/M07 A2986 RMK A01 T00301071  RH  047%=      5-min Rain = 0
KQU1 211314Z 23000KT 03/M07 A2986 RMK A01 T00301071  RH  048%=      5-min Rain = 0
KQU1 211315Z 24001KT 03/M07 A2986 RMK A01 T00301070  RH  048%=      5-min Rain = 0
KQU1 211316Z 26002KT 03/M07 A2986 RMK A01 T00291070  RH  048%=      5-min Rain = 0
KQU1 211317Z 25002KT 03/M07 A2986 RMK A01 T00291070  RH  048%=      5-min Rain = 0
KQU1 211318Z 24001KT 03/M07 A2986 RMK A01 T00291070  RH  048%=      5-min Rain = 0
KQU1 211319Z 24000KT 03/M07 A2985 RMK A01 T00291070  RH  048%=      5-min Rain = 0
KQU1 211320Z 15001KT 03/M07 A2985 RMK A01 T00291071  RH  048%=      5-min Rain = 0
KQU1 211321Z 15001KT 03/M07 A2985 RMK A01 T00291071  RH  048%=      5-min Rain = 0
KQU1 211322Z 14001KT 03/M07 A2985 RMK A01 T00291071  RH  048%=      5-min Rain = 0
KQU1 211323Z 12002KT 03/M07 A2985 RMK A01 T00291071  RH  048%=      5-min Rain = 0
KQU1 211324Z 11002KT 03/M07 A2985 RMK A01 T00291071  RH  048%=      5-min Rain = 0
KQU1 211325Z 12002KT 03/M07 A2985 RMK A01 T00291072  RH  047%=      5-min Rain = 0
KQU1 211326Z 11002KT 03/M07 A2985 RMK A01 T00301071  RH  047%=      5-min Rain = 0
KQU1 211327Z 12001KT 03/M07 A2985 RMK A01 T00301071  RH  047%=      5-min Rain = 0
KQU1 211328Z 10002KT 03/M07 A2985 RMK A01 T00301070  RH  047%=      5-min Rain = 0
KQU1 211329Z 11001KT 03/M07 A2985 RMK A01 T00311071  RH  047%=      5-min Rain = 0
KQU1 211330Z 10001KT 03/M07 A2985 RMK A01 T00311071  RH  047%=      5-min Rain = 0
KQU1 211331Z 11001KT 03/M07 A2986 RMK A01 T00311071  RH  047%=      5-min Rain = 0
KQU1 211332Z 12002KT 03/M07 A2986 RMK A01 T00311071  RH  047%=      5-min Rain = 0
KQU1 211333Z 11002KT 03/M07 A2986 RMK A01 T00321072  RH  047%=      5-min Rain = 0
KQU1 211334Z 11002KT 03/M07 A2986 RMK A01 T00321072  RH  046%=      5-min Rain = 0
KQU1 211335Z 10003KT 03/M07 A2985 RMK A01 T00321072  RH  046%=      5-min Rain = 0
KQU1 211336Z 09004KT 03/M07 A2985 RMK A01 T00321072  RH  046%=      5-min Rain = 0
KQU1 211337Z 09004KT 03/M07 A2985 RMK A01 T00321072  RH  046%=      5-min Rain = 0
KQU1 211338Z 08005KT 03/M07 A2985 RMK A01 T00321071  RH  047%=      5-min Rain = 0
KQU1 211339Z 08005KT 03/M07 A2985 RMK A01 T00321071  RH  047%=      5-min Rain = 0
KQU1 211340Z 08006KT 03/M07 A2985 RMK A01 T00321071  RH  047%=      5-min Rain = 0
KQU1 211341Z 09006KT 03/M07 A2985 RMK A01 T00321071  RH  047%=      5-min Rain = 0
KQU1 211342Z 09005KT 03/M07 A2985 RMK A01 T00321072  RH  047%=      5-min Rain = 0
KQU1 211343Z 09005KT 03/M07 A2985 RMK A01 T00321072  RH  046%=      5-min Rain = 0
KQU1 211344Z 10005KT 03/M07 A2985 RMK A01 T00321072  RH  046%=      5-min Rain = 0
KQU1 211345Z 10005KT 03/M07 A2985 RMK A01 T00321072  RH  046%=      5-min Rain = 0
KQU1 211346Z 10005KT 03/M07 A2985 RMK A01 T00331073  RH  046%=      5-min Rain = 0
KQU1 211347Z 11004KT 03/M07 A2985 RMK A01 T00331073  RH  046%=      5-min Rain = 0
KQU1 211348Z 11004KT 03/M07 A2985 RMK A01 T00331072  RH  046%=      5-min Rain = 0
KQU1 211349Z 11003KT 03/M07 A2985 RMK A01 T00331072  RH  046%=      5-min Rain = 0
KQU1 211350Z 12003KT 03/M07 A2985 RMK A01 T00331073  RH  046%=      5-min Rain = 0
KQU1 211351Z 13003KT 03/M07 A2985 RMK A01 T00331073  RH  046%=      5-min Rain = 0
KQU1 211352Z 13003KT 03/M07 A2986 RMK A01 T00331072  RH  046%=      5-min Rain = 0
KQU1 211353Z 14002KT 03/M07 A2986 RMK A01 T00331073  RH  046%=      5-min Rain = 0
KQU1 211354Z 15002KT 03/M07 A2986 RMK A01 T00331073  RH  046%=      5-min Rain = 0
KQU1 211355Z 13002KT 03/M07 A2985 RMK A01 T00331073  RH  046%=      5-min Rain = 0
KQU1 211356Z 10003KT 03/M07 A2985 RMK A01 T00331073  RH  046%=      5-min Rain = 0
KQU1 211357Z 09003KT 03/M07 A2985 RMK A01 T00331073  RH  046%=      5-min Rain = 0
KQU1 211358Z 08002KT 03/M07 A2985 RMK A01 T00331071  RH  046%=      5-min Rain = 0
KQU1 211359Z 09002KT 03/M07 A2985 RMK A01 T00331071  RH  046%=      5-min Rain = 0
KQU1 211400Z 08000KT 03/M07 A2985 RMK A01 T00331071  RH  046%=      5-min Rain = 0
KQU1 211401Z 00000KT 03/M07 A2984 RMK A01 T00331072  RH  046%=      5-min Rain = 0
KQU1 211402Z 00000KT 03/M07 A2984 RMK A01 T00331072  RH  046%=      5-min Rain = 0
KQU1 211403Z 09001KT 03/M07 A2985 RMK A01 T00331072  RH  046%=      5-min Rain = 0
KQU1 211404Z 08002KT 03/M07 A2985 RMK A01 T00341073  RH  046%=      5-min Rain = 0
KQU1 211405Z 06003KT 03/M07 A2985 RMK A01 T00341072  RH  046%=      5-min Rain = 0
KQU1 211406Z 05002KT 03/M07 A2985 RMK A01 T00341072  RH  046%=      5-min Rain = 0
KQU1 211407Z 02002KT 03/M07 A2985 RMK A01 T00341071  RH  046%=      5-min Rain = 0
KQU1 211408Z 25001KT 04/M07 A2986 RMK A01 T00351070  RH  046%=      5-min Rain = 0
KQU1 211409Z 29001KT 03/M07 A2986 RMK A01 T00341070  RH  046%=      5-min Rain = 0
KQU1 211410Z 28002KT 04/M07 A2986 RMK A01 T00351070  RH  046%=      5-min Rain = 0
KQU1 211411Z 26005KT 04/M07 A2987 RMK A01 T00351070  RH  046%=      5-min Rain = 0
KQU1 211412Z 26006KT 04/M07 A2988 RMK A01 T00351070  RH  046%=      5-min Rain = 0
KQU1 211413Z 26007KT 04/M07 A2988 RMK A01 T00351069  RH  047%=      5-min Rain = 0
KQU1 211414Z 26007KT 03/M07 A2988 RMK A01 T00341069  RH  047%=      5-min Rain = 0
KQU1 211415Z 25007KT 03/M07 A2988 RMK A01 T00341070  RH  047%=      5-min Rain = 0
KQU1 211416Z 24005KT 03/M07 A2988 RMK A01 T00341069  RH  047%=      5-min Rain = 0
KQU1 211417Z 23004KT 03/M07 A2988 RMK A01 T00341070  RH  047%=      5-min Rain = 0
KQU1 211418Z 22002KT 03/M07 A2988 RMK A01 T00341069  RH  047%=      5-min Rain = 0
KQU1 211419Z 20002KT 03/M07 A2988 RMK A01 T00341069  RH  047%=      5-min Rain = 0
KQU1 211420Z 18002KT 03/M07 A2988 RMK A01 T00341069  RH  047%=      5-min Rain = 0
KQU1 211421Z 19002KT 04/M07 A2988 RMK A01 T00351070  RH  046%=      5-min Rain = 0
KQU1 211422Z 19002KT 04/M07 A2988 RMK A01 T00351069  RH  047%=      5-min Rain = 0
KQU1 211423Z 18002KT 04/M07 A2988 RMK A01 T00351069  RH  047%=      5-min Rain = 0
KQU1 211424Z 18002KT 04/M07 A2989 RMK A01 T00351068  RH  047%=      5-min Rain = 0
KQU1 211425Z 16002KT 04/M07 A2989 RMK A01 T00361068  RH  047%=      5-min Rain = 0
KQU1 211426Z 17002KT 04/M07 A2989 RMK A01 T00361070  RH  046%=      5-min Rain = 0
KQU1 211427Z 17001KT 04/M07 A2989 RMK A01 T00371070  RH  045%=      5-min Rain = 0
KQU1 211428Z 19001KT 04/M07 A2989 RMK A01 T00371070  RH  045%=      5-min Rain = 0
KQU1 211429Z 18002KT 04/M07 A2989 RMK A01 T00381070  RH  045%=      5-min Rain = 0
KQU1 211430Z 16003KT 04/M07 A299 RMK A01 T00381070  RH  045%=      5-min Rain = 0
KQU1 211431Z 17003KT 04/M07 A299 RMK A01 T00381070  RH  045%=      5-min Rain = 0
KQU1 211432Z 18002KT 04/M07 A299 RMK A01 T00391071  RH  045%=      5-min Rain = 0
KQU1 211433Z 16003KT 04/M07 A299 RMK A01 T00391070  RH  045%=      5-min Rain = 0
KQU1 211434Z 16003KT 04/M07 A299 RMK A01 T00401070  RH  045%=      5-min Rain = 0
KQU1 211435Z 17003KT 04/M07 A299 RMK A01 T00401070  RH  044%=      5-min Rain = 0
KQU1 211436Z 19002KT 04/M07 A299 RMK A01 T00401070  RH  044%=      5-min Rain = 0
KQU1 211437Z 35002KT 04/M07 A299 RMK A01 T00411070  RH  044%=      5-min Rain = 0
KQU1 211438Z 35001KT 04/M07 A299 RMK A01 T00411070  RH  044%=      5-min Rain = 0
KQU1 211439Z 00000KT 04/M07 A299 RMK A01 T00411070  RH  044%=      5-min Rain = 0
KQU1 211440Z 00000KT 04/M07 A299 RMK A01 T00411068  RH  045%=      5-min Rain = 0
KQU1 211441Z 00000KT 04/M07 A299 RMK A01 T00411068  RH  045%=      5-min Rain = 0
KQU1 211442Z 00000KT 04/M07 A299 RMK A01 T00411068  RH  045%=      5-min Rain = 0
KQU1 211443Z 00001KT 04/M07 A299 RMK A01 T00411068  RH  045%=      5-min Rain = 0
KQU1 211444Z 01002KT 04/M07 A299 RMK A01 T00411068  RH  045%=      5-min Rain = 0
KQU1 211445Z 01002KT 04/M07 A299 RMK A01 T00421068  RH  045%=      5-min Rain = 0
KQU1 211446Z 01001KT 04/M07 A2989 RMK A01 T00421068  RH  045%=      5-min Rain = 0
KQU1 211447Z 01001KT 04/M07 A2989 RMK A01 T00421068  RH  045%=      5-min Rain = 0
KQU1 211448Z 01002KT 04/M07 A299 RMK A01 T00431068  RH  045%=      5-min Rain = 0
KQU1 211449Z 01002KT 04/M07 A299 RMK A01 T00431068  RH  044%=      5-min Rain = 0
KQU1 211450Z 01001KT 04/M07 A299 RMK A01 T00431068  RH  044%=      5-min Rain = 0
KQU1 211451Z 01000KT 04/M07 A2989 RMK A01 T00441069  RH  044%=      5-min Rain = 0
KQU1 211452Z 01000KT 04/M07 A2989 RMK A01 T00441068  RH  044%=      5-min Rain = 0
KQU1 211453Z 01000KT 04/M07 A2989 RMK A01 T00441069  RH  044%=      5-min Rain = 0
KQU1 211454Z 01000KT 04/M07 A2989 RMK A01 T00441068  RH  044%=      5-min Rain = 0
KQU1 211455Z 01001KT 04/M07 A2989 RMK A01 T00441070  RH  043%=      5-min Rain = 0
KQU1 211456Z 01001KT 05/M07 A2989 RMK A01 T00451069  RH  043%=      5-min Rain = 0
KQU1 211457Z 02001KT 05/M07 A299 RMK A01 T00451069  RH  043%=      5-min Rain = 0
KQU1 211458Z 03000KT 05/M07 A2989 RMK A01 T00451069  RH  043%=      5-min Rain = 0
KQU1 211459Z 03000KT 05/M07 A299 RMK A01 T00451069  RH  043%=      5-min Rain = 0
KQU1 211500Z 00000KT 05/M07 A299 RMK A01 T00461069  RH  043%=      5-min Rain = 0
KQU1 211501Z 12002KT 05/M07 A2989 RMK A01 T00461070  RH  043%=      5-min Rain = 0
KQU1 211502Z 13003KT 05/M07 A299 RMK A01 T00461069  RH  043%=      5-min Rain = 0
KQU1 211503Z 13003KT 05/M07 A299 RMK A01 T00471070  RH  043%=      5-min Rain = 0
KQU1 211504Z 11002KT 05/M07 A299 RMK A01 T00471070  RH  042%=      5-min Rain = 0
KQU1 211505Z 11002KT 05/M07 A2989 RMK A01 T00471070  RH  042%=      5-min Rain = 0
KQU1 211506Z 11002KT 05/M07 A2989 RMK A01 T00471071  RH  042%=      5-min Rain = 0
KQU1 211507Z 11003KT 05/M07 A2989 RMK A01 T00481070  RH  042%=      5-min Rain = 0
KQU1 211508Z 10003KT 05/M07 A2989 RMK A01 T00481071  RH  042%=      5-min Rain = 0
KQU1 211509Z 09004KT 05/M07 A2989 RMK A01 T00481071  RH  042%=      5-min Rain = 0
KQU1 211510Z 09003KT 05/M07 A2989 RMK A01 T00481071  RH  042%=      5-min Rain = 0
KQU1 211511Z 09003KT 05/M07 A2989 RMK A01 T00481071  RH  042%=      5-min Rain = 0
KQU1 211512Z 08003KT 05/M07 A299 RMK A01 T00481069  RH  042%=      5-min Rain = 0
KQU1 211513Z 10003KT 05/M07 A299 RMK A01 T00481070  RH  042%=      5-min Rain = 0
KQU1 211514Z 09003KT 05/M07 A299 RMK A01 T00481071  RH  042%=      5-min Rain = 0
KQU1 211515Z 10003KT 05/M07 A299 RMK A01 T00481070  RH  042%=      5-min Rain = 0
KQU1 211516Z 10003KT 05/M07 A299 RMK A01 T00481070  RH  042%=      5-min Rain = 0
KQU1 211517Z 10003KT 05/M07 A299 RMK A01 T00481070  RH  042%=      5-min Rain = 0
KQU1 211518Z 10002KT 05/M07 A299 RMK A01 T00491070  RH  042%=      5-min Rain = 0
KQU1 211519Z 09003KT 05/M07 A299 RMK A01 T00491069  RH  042%=      5-min Rain = 0
KQU1 211520Z 10004KT 05/M07 A299 RMK A01 T00491069  RH  042%=      5-min Rain = 0
KQU1 211521Z 09004KT 05/M07 A299 RMK A01 T00491069  RH  042%=      5-min Rain = 0
KQU1 211522Z 09004KT 05/M07 A299 RMK A01 T00491069  RH  042%=      5-min Rain = 0
KQU1 211523Z 08003KT 05/M07 A299 RMK A01 T00491068  RH  043%=      5-min Rain = 0
KQU1 211524Z 09003KT 05/M07 A299 RMK A01 T00501068  RH  042%=      5-min Rain = 0
KQU1 211525Z 08003KT 05/M07 A299 RMK A01 T00501068  RH  042%=      5-min Rain = 0
KQU1 211526Z 09002KT 05/M07 A299 RMK A01 T00501068  RH  042%=      5-min Rain = 0
KQU1 211527Z 07002KT 05/M07 A299 RMK A01 T00501068  RH  042%=      5-min Rain = 0
KQU1 211528Z 07002KT 05/M07 A299 RMK A01 T00501069  RH  042%=      5-min Rain = 0
KQU1 211529Z 08002KT 05/M07 A299 RMK A01 T00501068  RH  042%=      5-min Rain = 0
KQU1 211530Z 08002KT 05/M07 A2991 RMK A01 T00511068  RH  042%=      5-min Rain = 0
KQU1 211531Z 07000KT 05/M07 A2991 RMK A01 T00511067  RH  042%=      5-min Rain = 0
KQU1 211532Z 06001KT 05/M07 A2991 RMK A01 T00521068  RH  042%=      5-min Rain = 0
KQU1 211533Z 07002KT 05/M07 A2991 RMK A01 T00521068  RH  042%=      5-min Rain = 0
KQU1 211534Z 04002KT 05/M07 A2991 RMK A01 T00521067  RH  042%=      5-min Rain = 0
KQU1 211535Z 02001KT 05/M07 A2991 RMK A01 T00521066  RH  042%=      5-min Rain = 0
KQU1 211536Z 00000KT 05/M07 A2991 RMK A01 T00521065  RH  043%=      5-min Rain = 0
KQU1 211537Z 02000KT 05/M07 A2991 RMK A01 T00521065  RH  043%=      5-min Rain = 0
KQU1 211538Z 02002KT 05/M06 A2991 RMK A01 T00531064  RH  043%=      5-min Rain = 0
KQU1 211539Z 03001KT 05/M06 A2991 RMK A01 T00531063  RH  043%=      5-min Rain = 0
KQU1 211540Z 01001KT 05/M07 A2992 RMK A01 T00531065  RH  042%=      5-min Rain = 0
KQU1 211541Z 36001KT 05/M06 A2992 RMK A01 T00541063  RH  043%=      5-min Rain = 0
KQU1 211542Z 01002KT 05/M07 A2992 RMK A01 T00541066  RH  042%=      5-min Rain = 0
KQU1 211543Z 04001KT 05/M07 A2992 RMK A01 T00541066  RH  042%=      5-min Rain = 0
KQU1 211544Z 08003KT 05/M06 A2992 RMK A01 T00541064  RH  042%=      5-min Rain = 0
KQU1 211545Z 07003KT 05/M06 A2991 RMK A01 T00541064  RH  042%=      5-min Rain = 0
KQU1 211546Z 05002KT 06/M06 A2991 RMK A01 T00551064  RH  042%=      5-min Rain = 0
KQU1 211547Z 03001KT 06/M06 A2991 RMK A01 T00561064  RH  042%=      5-min Rain = 0
KQU1 211548Z 06002KT 06/M06 A2991 RMK A01 T00561062  RH  042%=      5-min Rain = 0
KQU1 211549Z 05003KT 06/M06 A2992 RMK A01 T00571062  RH  042%=      5-min Rain = 0
KQU1 211550Z 04003KT 06/M06 A2991 RMK A01 T00571064  RH  041%=      5-min Rain = 0
KQU1 211551Z 04003KT 06/M06 A2991 RMK A01 T00571063  RH  042%=      5-min Rain = 0
KQU1 211552Z 06003KT 06/M06 A2991 RMK A01 T00581063  RH  042%=      5-min Rain = 0
KQU1 211553Z 07003KT 06/M06 A2992 RMK A01 T00581062  RH  042%=      5-min Rain = 0
KQU1 211554Z 08003KT 06/M06 A2992 RMK A01 T00581062  RH  042%=      5-min Rain = 0
KQU1 211555Z 09003KT 06/M06 A2992 RMK A01 T00591063  RH  041%=      5-min Rain = 0
KQU1 211556Z 08003KT 06/M06 A2991 RMK A01 T00591063  RH  041%=      5-min Rain = 0
KQU1 211557Z 07003KT 06/M06 A2991 RMK A01 T00601061  RH  041%=      5-min Rain = 0
KQU1 211558Z 07003KT 06/M06 A2991 RMK A01 T00621061  RH  041%=      5-min Rain = 0
KQU1 211559Z 07002KT 06/M06 A2991 RMK A01 T00621063  RH  040%=      5-min Rain = 0
KQU1 211600Z 10005KT 06/M06 A2991 RMK A01 T00621062  RH  040%=      5-min Rain = 0
KQU1 211601Z 13007KT 06/M06 A2991 RMK A01 T00621061  RH  041%=      5-min Rain = 0
KQU1 211602Z 12007KT 06/M06 A2991 RMK A01 T00631062  RH  040%=      5-min Rain = 0
KQU1 211603Z 11006KT 06/M06 A2991 RMK A01 T00631061  RH  041%=      5-min Rain = 0
KQU1 211604Z 10006KT 06/M06 A2991 RMK A01 T00641061  RH  040%=      5-min Rain = 0
KQU1 211605Z 11008KT 06/M06 A2991 RMK A01 T00641062  RH  040%=      5-min Rain = 0
KQU1 211606Z 11008KT 06/M06 A2991 RMK A01 T00631062  RH  040%=      5-min Rain = 0
KQU1 211607Z 11008KT 06/M06 A2991 RMK A01 T00621062  RH  041%=      5-min Rain = 0
KQU1 211608Z 11006KT 06/M06 A2991 RMK A01 T00621060  RH  041%=      5-min Rain = 0
KQU1 211609Z 11006KT 06/M06 A2991 RMK A01 T00621059  RH  042%=      5-min Rain = 0
KQU1 211610Z 10007KT 06/M06 A2991 RMK A01 T00631059  RH  041%=      5-min Rain = 0
KQU1 211611Z 10008KT 06/M06 A2991 RMK A01 T00621057  RH  042%=      5-min Rain = 0
KQU1 211612Z 11009KT 06/M06 A2991 RMK A01 T00621057  RH  042%=      5-min Rain = 0
KQU1 211613Z 11006KT 06/M06 A2991 RMK A01 T00611056  RH  043%=      5-min Rain = 0
KQU1 211614Z 12008KT 06/M05 A2991 RMK A01 T00621052  RH  044%=      5-min Rain = 0
KQU1 211615Z 11007KT 06/M05 A2991 RMK A01 T00631052  RH  043%=      5-min Rain = 0
KQU1 211616Z 10007KT 06/M05 A2991 RMK A01 T00641052  RH  043%=      5-min Rain = 0
KQU1 211617Z 12007KT 06/M05 A2991 RMK A01 T00641051  RH  044%=      5-min Rain = 0
KQU1 211618Z 11008KT 07/M05 A299 RMK A01 T00661050  RH  043%=      5-min Rain = 0
KQU1 211619Z 11007KT 07/M05 A299 RMK A01 T00661051  RH  043%=      5-min Rain = 0
KQU1 211620Z 11009KT 07/M05 A299 RMK A01 T00661049  RH  043%=      5-min Rain = 0
KQU1 211621Z 10008KT 07/M05 A299 RMK A01 T00671049  RH  043%=      5-min Rain = 0
KQU1 211622Z 11008KT 07/M05 A299 RMK A01 T00681046  RH  044%=      5-min Rain = 0
KQU1 211623Z 12010KT 07/M05 A299 RMK A01 T00701045  RH  044%=      5-min Rain = 0
KQU1 211624Z 13010KT 07/M05 A299 RMK A01 T00721045  RH  043%=      5-min Rain = 0
KQU1 211625Z 12010KT 07/M05 A299 RMK A01 T00731045  RH  043%=      5-min Rain = 0
KQU1 211626Z 11009KT 07/M05 A299 RMK A01 T00731045  RH  043%=      5-min Rain = 0
KQU1 211627Z 11010KT 07/M04 A299 RMK A01 T00741043  RH  043%=      5-min Rain = 0
KQU1 211628Z 12010KT 08/M04 A299 RMK A01 T00751042  RH  043%=      5-min Rain = 0
KQU1 211629Z 11011KT 08/M04 A299 RMK A01 T00761043  RH  043%=      5-min Rain = 0
KQU1 211630Z 11009KT 08/M04 A299 RMK A01 T00761043  RH  043%=      5-min Rain = 0
KQU1 211631Z 10012KT 08/M04 A299 RMK A01 T00761043  RH  043%=      5-min Rain = 0
KQU1 211632Z 11010KT 08/M04 A299 RMK A01 T00761043  RH  043%=      5-min Rain = 0
KQU1 211633Z 11010KT 08/M04 A299 RMK A01 T00751042  RH  043%=      5-min Rain = 0
KQU1 211634Z 12010KT 08/M04 A299 RMK A01 T00761039  RH  044%=      5-min Rain = 0
KQU1 211635Z 12010KT 08/M04 A299 RMK A01 T00781041  RH  043%=      5-min Rain = 0
KQU1 211636Z 11008KT 08/M04 A299 RMK A01 T00781039  RH  043%=      5-min Rain = 0
KQU1 211637Z 12013KT 08/M04 A299 RMK A01 T00801040  RH  042%=      5-min Rain = 0
KQU1 211638Z 13013KT 08/M04 A299 RMK A01 T00821039  RH  042%=      5-min Rain = 0
KQU1 211639Z 13011KT 08/M04 A299 RMK A01 T00831040  RH  042%=      5-min Rain = 0
KQU1 211640Z 12011KT 08/M04 A299 RMK A01 T00841040  RH  041%=      5-min Rain = 0
KQU1 211641Z 13009G14KT 09/M04 A299 RMK A01 T00851038  RH  041%=      5-min Rain = 0
KQU1 211642Z 13013KT 09/M04 A299 RMK A01 T00861041  RH  041%=      5-min Rain = 0
KQU1 211643Z 12014KT 08/M04 A299 RMK A01 T00841041  RH  041%=      5-min Rain = 0
KQU1 211644Z 11014KT 08/M04 A299 RMK A01 T00831041  RH  041%=      5-min Rain = 0
KQU1 211645Z 11015KT 08/M04 A299 RMK A01 T00811039  RH  042%=      5-min Rain = 0
KQU1 211646Z 12014KT 08/M04 A299 RMK A01 T00811039  RH  043%=      5-min Rain = 0
KQU1 211647Z 13015KT 08/M04 A299 RMK A01 T00821039  RH  042%=      5-min Rain = 0
KQU1 211648Z 13016KT 08/M04 A2989 RMK A01 T00821039  RH  042%=      5-min Rain = 0
KQU1 211649Z 12013KT 08/M04 A2989 RMK A01 T00821040  RH  042%=      5-min Rain = 0
KQU1 211650Z 12012KT 08/M04 A2989 RMK A01 T00811040  RH  042%=      5-min Rain = 0
KQU1 211651Z 12012KT 08/M04 A299 RMK A01 T00811038  RH  043%=      5-min Rain = 0
KQU1 211652Z 12012KT 08/M04 A299 RMK A01 T00821036  RH  043%=      5-min Rain = 0
KQU1 211653Z 12015KT 08/M04 A299 RMK A01 T00831037  RH  042%=      5-min Rain = 0
KQU1 211654Z 13010G15KT 08/M04 A2991 RMK A01 T00841039  RH  042%=      5-min Rain = 0
KQU1 211655Z 14009KT 09/M04 A2991 RMK A01 T00851038  RH  042%=      5-min Rain = 0
KQU1 211656Z 14010KT 09/M04 A2991 RMK A01 T00851037  RH  042%=      5-min Rain = 0
KQU1 211657Z 14012KT 09/M04 A2992 RMK A01 T00871036  RH  042%=      5-min Rain = 0
KQU1 211658Z 13011KT 09/M04 A2992 RMK A01 T00891035  RH  042%=      5-min Rain = 0
KQU1 211659Z 12011KT 09/M04 A2992 RMK A01 T00901035  RH  041%=      5-min Rain = 0
KQU1 211700Z 12012KT 09/M04 A2992 RMK A01 T00921036  RH  040%=      5-min Rain = 0
KQU1 211701Z 13010KT 09/M04 A2992 RMK A01 T00911038  RH  040%=      5-min Rain = 0
KQU1 211702Z 12014KT 09/M04 A2992 RMK A01 T00901037  RH  040%=      5-min Rain = 0
KQU1 211703Z 13013KT 09/M04 A2992 RMK A01 T00891038  RH  041%=      5-min Rain = 0
KQU1 211704Z 14011KT 09/M04 A2991 RMK A01 T00881038  RH  041%=      5-min Rain = 0
KQU1 211705Z 13012KT 09/M04 A2991 RMK A01 T00871037  RH  041%=      5-min Rain = 0
KQU1 211706Z 12012KT 09/M04 A2991 RMK A01 T00871038  RH  041%=      5-min Rain = 0
KQU1 211707Z 12013KT 09/M04 A2991 RMK A01 T00861038  RH  041%=      5-min Rain = 0
KQU1 211708Z 12012KT 09/M04 A2991 RMK A01 T00851037  RH  042%=      5-min Rain = 0
KQU1 211709Z 12013KT 08/M04 A2991 RMK A01 T00841037  RH  042%=      5-min Rain = 0
KQU1 211710Z 12012KT 08/M04 A2991 RMK A01 T00831036  RH  043%=      5-min Rain = 0
KQU1 211711Z 12012KT 08/M04 A2991 RMK A01 T00841035  RH  043%=      5-min Rain = 0
KQU1 211712Z 14010KT 08/M04 A2991 RMK A01 T00841035  RH  043%=      5-min Rain = 0
KQU1 211713Z 13011KT 09/M04 A2991 RMK A01 T00851035  RH  043%=      5-min Rain = 0
KQU1 211714Z 12010KT 09/M03 A2991 RMK A01 T00861034  RH  042%=      5-min Rain = 0
KQU1 211715Z 12011KT 09/M03 A2991 RMK A01 T00871034  RH  042%=      5-min Rain = 0
KQU1 211716Z 12011KT 09/M03 A2991 RMK A01 T00881033  RH  042%=      5-min Rain = 0
KQU1 211717Z 12013KT 09/M03 A2991 RMK A01 T00881034  RH  042%=      5-min Rain = 0
KQU1 211718Z 12012KT 09/M04 A2991 RMK A01 T00881035  RH  042%=      5-min Rain = 0
KQU1 211719Z 12013KT 09/M03 A2991 RMK A01 T00871034  RH  042%=      5-min Rain = 0
KQU1 211720Z 12014KT 09/M03 A2991 RMK A01 T00871034  RH  042%=      5-min Rain = 0
KQU1 211721Z 13010KT 09/M03 A2991 RMK A01 T00881032  RH  043%=      5-min Rain = 0
KQU1 211722Z 14009KT 09/M03 A2991 RMK A01 T00891031  RH  043%=      5-min Rain = 0
KQU1 211723Z 15010KT 09/M03 A2991 RMK A01 T00901031  RH  042%=      5-min Rain = 0
KQU1 211724Z 12011KT 09/M03 A299 RMK A01 T00921031  RH  042%=      5-min Rain = 0
KQU1 211725Z 12013KT 09/M03 A299 RMK A01 T00921032  RH  041%=      5-min Rain = 0
KQU1 211726Z 13011KT 09/M03 A299 RMK A01 T00921032  RH  042%=      5-min Rain = 0
KQU1 211727Z 13014KT 09/M03 A299 RMK A01 T00921031  RH  042%=      5-min Rain = 0
KQU1 211728Z 13014KT 09/M03 A2991 RMK A01 T00931032  RH  041%=      5-min Rain = 0
KQU1 211729Z 13012KT 09/M03 A299 RMK A01 T00931031  RH  042%=      5-min Rain = 0
KQU1 211730Z 14013KT 09/M03 A2991 RMK A01 T00931032  RH  041%=      5-min Rain = 0
KQU1 211731Z 14010KT 09/M03 A2991 RMK A01 T00931032  RH  041%=      5-min Rain = 0
KQU1 211732Z 14008KT 09/M03 A2991 RMK A01 T00931031  RH  042%=      5-min Rain = 0
KQU1 211733Z 12011KT 09/M03 A2991 RMK A01 T00941030  RH  042%=      5-min Rain = 0
KQU1 211734Z 13014KT 10/M03 A299 RMK A01 T00951029  RH  042%=      5-min Rain = 0
KQU1 211735Z 13014KT 10/M03 A299 RMK A01 T00971029  RH  041%=      5-min Rain = 0
KQU1 211736Z 15013KT 10/M03 A299 RMK A01 T00971030  RH  041%=      5-min Rain = 0
KQU1 211737Z 14010KT 10/M03 A299 RMK A01 T00961030  RH  041%=      5-min Rain = 0
KQU1 211738Z 15011KT 10/M03 A299 RMK A01 T00961029  RH  041%=      5-min Rain = 0
KQU1 211739Z 12011KT 10/M03 A299 RMK A01 T00971028  RH  041%=      5-min Rain = 0
KQU1 211740Z 12011KT 10/M03 A299 RMK A01 T00981029  RH  041%=      5-min Rain = 0
KQU1 211741Z 12011KT 10/M03 A299 RMK A01 T00981029  RH  041%=      5-min Rain = 0
KQU1 211742Z 13013KT 10/M03 A299 RMK A01 T00981028  RH  041%=      5-min Rain = 0
KQU1 211743Z 12013KT 10/M03 A299 RMK A01 T00991028  RH  041%=      5-min Rain = 0
KQU1 211744Z 13011KT 10/M03 A299 RMK A01 T00981029  RH  041%=      5-min Rain = 0
KQU1 211745Z 15012KT 10/M03 A299 RMK A01 T00991026  RH  041%=      5-min Rain = 0
KQU1 211746Z 14011KT 10/M03 A299 RMK A01 T01001025  RH  041%=      5-min Rain = 0
KQU1 211747Z 14011KT 10/M03 A299 RMK A01 T01031025  RH  041%=      5-min Rain = 0
KQU1 211748Z 13011KT 11/M03 A299 RMK A01 T01051025  RH  040%=      5-min Rain = 0
KQU1 211749Z 12012KT 11/M03 A2989 RMK A01 T01071025  RH  040%=      5-min Rain = 0
KQU1 211750Z 12015KT 11/M02 A2989 RMK A01 T01081023  RH  040%=      5-min Rain = 0
KQU1 211751Z 11016KT 11/M03 A2989 RMK A01 T01081026  RH  039%=      5-min Rain = 0
KQU1 211752Z 11015KT 11/M03 A2989 RMK A01 T01071025  RH  040%=      5-min Rain = 0
KQU1 211753Z 11017KT 11/M03 A2989 RMK A01 T01071025  RH  040%=      5-min Rain = 0
KQU1 211754Z 12013KT 11/M02 A2989 RMK A01 T01081024  RH  040%=      5-min Rain = 0
KQU1 211755Z 13016KT 11/M02 A2989 RMK A01 T01101022  RH  040%=      5-min Rain = 0
KQU1 211756Z 15015KT 11/M02 A2988 RMK A01 T01111024  RH  039%=      5-min Rain = 0
KQU1 211757Z 13013KT 11/M02 A2988 RMK A01 T01111021  RH  040%=      5-min Rain = 0
KQU1 211758Z 12013KT 11/M02 A2988 RMK A01 T01131024  RH  039%=      5-min Rain = 0
KQU1 211759Z 14015KT 11/M02 A2988 RMK A01 T01121022  RH  039%=      5-min Rain = 0
KQU1 211800Z 12014KT 11/M02 A2989 RMK A01 T01131020  RH  039%=      5-min Rain = 0
KQU1 211801Z 13014KT 11/M02 A2989 RMK A01 T01141020  RH  039%=      5-min Rain = 0
KQU1 211802Z 12015KT 12/M02 A2989 RMK A01 T01161021  RH  038%=      5-min Rain = 0
KQU1 211803Z 13016KT 12/M02 A2989 RMK A01 T01161021  RH  038%=      5-min Rain = 0
KQU1 211804Z 12015G20KT 12/M02 A2989 RMK A01 T01161020  RH  039%=      5-min Rain = 0
KQU1 211805Z 12012KT 12/M02 A2989 RMK A01 T01161020  RH  039%=      5-min Rain = 0
KQU1 211806Z 12015G20KT 12/M02 A2989 RMK A01 T01161020  RH  039%=      5-min Rain = 0
KQU1 211807Z 11014KT 12/M02 A2989 RMK A01 T01151020  RH  039%=      5-min Rain = 0
KQU1 211808Z 13009KT 11/M02 A2989 RMK A01 T01141017  RH  040%=      5-min Rain = 0
KQU1 211809Z 13009G16KT 12/M02 A2989 RMK A01 T01161016  RH  040%=      5-min Rain = 0
KQU1 211810Z 13012G18KT 12/M02 A2989 RMK A01 T01181017  RH  039%=      5-min Rain = 0
KQU1 211811Z 12015KT 12/M02 A2989 RMK A01 T01191017  RH  039%=      5-min Rain = 0
KQU1 211812Z 13013KT 12/M02 A2989 RMK A01 T01191018  RH  039%=      5-min Rain = 0
KQU1 211813Z 13015KT 12/M02 A2989 RMK A01 T01181018  RH  039%=      5-min Rain = 0
KQU1 211814Z 11016KT 12/M02 A2989 RMK A01 T01171017  RH  039%=      5-min Rain = 0
KQU1 211815Z 12015G20KT 12/M02 A2989 RMK A01 T01161017  RH  040%=      5-min Rain = 0
KQU1 211816Z 13016KT 12/M02 A2989 RMK A01 T01161017  RH  039%=      5-min Rain = 0
KQU1 211817Z 12016KT 12/M02 A2989 RMK A01 T01171016  RH  039%=      5-min Rain = 0
KQU1 211818Z 13014KT 12/M02 A2989 RMK A01 T01171017  RH  039%=      5-min Rain = 0
KQU1 211819Z 12013G18KT 12/M02 A2988 RMK A01 T01181015  RH  039%=      5-min Rain = 0
KQU1 211820Z 12018G23KT 12/M02 A2988 RMK A01 T01191016  RH  039%=      5-min Rain = 0
KQU1 211821Z 12018KT 12/M02 A2988 RMK A01 T01191016  RH  039%=      5-min Rain = 0
KQU1 211822Z 12018KT 12/M02 A2988 RMK A01 T01191016  RH  039%=      5-min Rain = 0
KQU1 211823Z 12017G23KT 12/M01 A2988 RMK A01 T01201014  RH  039%=      5-min Rain = 0
KQU1 211824Z 12015KT 12/M01 A2988 RMK A01 T01221014  RH  039%=      5-min Rain = 0
KQU1 211825Z 13017KT 12/M01 A2989 RMK A01 T01221014  RH  039%=      5-min Rain = 0
KQU1 211826Z 13017KT 12/M01 A2989 RMK A01 T01241014  RH  038%=      5-min Rain = 0
KQU1 211827Z 13016KT 12/M01 A2989 RMK A01 T01241014  RH  038%=      5-min Rain = 0
KQU1 211828Z 14016KT 13/M01 A2989 RMK A01 T01261014  RH  038%=      5-min Rain = 0
KQU1 211829Z 13015KT 13/M02 A2989 RMK A01 T01261016  RH  037%=      5-min Rain = 0
KQU1 211830Z 13015KT 13/M01 A2989 RMK A01 T01261014  RH  038%=      5-min Rain = 0
KQU1 211831Z 14017KT 13/M02 A2989 RMK A01 T01261015  RH  038%=      5-min Rain = 0
KQU1 211832Z 14019G24KT 13/M02 A2989 RMK A01 T01261015  RH  038%=      5-min Rain = 0
KQU1 211833Z 13017KT 13/M01 A2989 RMK A01 T01271014  RH  038%=      5-min Rain = 0
KQU1 211834Z 13017KT 13/M02 A2989 RMK A01 T01271015  RH  037%=      5-min Rain = 0
KQU1 211835Z 13018KT 13/M02 A2989 RMK A01 T01271015  RH  037%=      5-min Rain = 0
KQU1 211836Z 12014KT 13/M02 A2988 RMK A01 T01261015  RH  037%=      5-min Rain = 0
KQU1 211837Z 13019KT 13/M01 A2988 RMK A01 T01271013  RH  038%=      5-min Rain = 0
KQU1 211838Z 14021KT 13/M02 A2988 RMK A01 T01271015  RH  037%=      5-min Rain = 0
KQU1 211839Z 13021KT 13/M02 A2988 RMK A01 T01271016  RH  037%=      5-min Rain = 0
KQU1 211840Z 13019KT 12/M02 A2988 RMK A01 T01241017  RH  037%=      5-min Rain = 0
KQU1 211841Z 13018KT 12/M01 A2988 RMK A01 T01231014  RH  038%=      5-min Rain = 0
KQU1 211842Z 15017KT 13/M01 A2988 RMK A01 T01251013  RH  038%=      5-min Rain = 0
KQU1 211843Z 15020KT 13/M02 A2988 RMK A01 T01261015  RH  038%=      5-min Rain = 0
KQU1 211844Z 14016G21KT 13/M01 A2988 RMK A01 T01251014  RH  038%=      5-min Rain = 0
KQU1 211845Z 13019KT 13/M01 A2988 RMK A01 T01251014  RH  038%=      5-min Rain = 0
KQU1 211846Z 13017KT 13/M01 A2988 RMK A01 T01261013  RH  038%=      5-min Rain = 0
KQU1 211847Z 15016G21KT 13/M01 A2988 RMK A01 T01261014  RH  038%=      5-min Rain = 0
KQU1 211848Z 14015KT 13/M01 A2988 RMK A01 T01251013  RH  038%=      5-min Rain = 0
KQU1 211849Z 13014KT 13/M01 A2988 RMK A01 T01271012  RH  038%=      5-min Rain = 0
KQU1 211850Z 13013KT 13/M01 A2988 RMK A01 T01291011  RH  038%=      5-min Rain = 0
KQU1 211851Z 14015KT 13/M01 A2988 RMK A01 T01321012  RH  037%=      5-min Rain = 0
KQU1 211852Z 14016KT 13/M01 A2988 RMK A01 T01321014  RH  036%=      5-min Rain = 0
KQU1 211853Z 14016KT 13/M01 A2988 RMK A01 T01321013  RH  037%=      5-min Rain = 0
KQU1 211854Z 13016KT 13/M01 A2987 RMK A01 T01331014  RH  036%=      5-min Rain = 0
KQU1 211855Z 13015KT 13/M02 A2987 RMK A01 T01321015  RH  036%=      5-min Rain = 0
KQU1 211856Z 12016KT 13/M01 A2987 RMK A01 T01311014  RH  036%=      5-min Rain = 0
KQU1 211857Z 12013KT 13/M01 A2987 RMK A01 T01311014  RH  037%=      5-min Rain = 0
KQU1 211858Z 12012KT 13/M02 A2987 RMK A01 T01301015  RH  037%=      5-min Rain = 0
KQU1 211859Z 14010G15KT 13/M01 A2987 RMK A01 T01301010  RH  038%=      5-min Rain = 0
KQU1 211900Z 15018KT 13/M01 A2987 RMK A01 T01331013  RH  036%=      5-min Rain = 0
KQU1 211901Z 15018KT 13/M02 A2987 RMK A01 T01331016  RH  036%=      5-min Rain = 0
KQU1 211902Z 14018KT 13/M01 A2987 RMK A01 T01331014  RH  036%=      5-min Rain = 0
KQU1 211903Z 14019KT 13/M01 A2987 RMK A01 T01341014  RH  036%=      5-min Rain = 0
KQU1 211904Z 15020KT 13/M02 A2987 RMK A01 T01341015  RH  036%=      5-min Rain = 0
KQU1 211905Z 15019KT 13/M01 A2987 RMK A01 T01341014  RH  036%=      5-min Rain = 0
KQU1 211906Z 14018KT 14/M01 A2987 RMK A01 T01361014  RH  035%=      5-min Rain = 0
KQU1 211907Z 14018KT 14/M01 A2987 RMK A01 T01371014  RH  035%=      5-min Rain = 0
KQU1 211908Z 15017KT 14/M01 A2987 RMK A01 T01381013  RH  035%=      5-min Rain = 0
KQU1 211909Z 14016KT 14/M01 A2987 RMK A01 T01391012  RH  035%=      5-min Rain = 0
KQU1 211910Z 13012KT 14/M01 A2987 RMK A01 T01391013  RH  035%=      5-min Rain = 0
KQU1 211911Z 13013G20KT 14/M01 A2986 RMK A01 T01381012  RH  036%=      5-min Rain = 0
KQU1 211912Z 15018KT 14/M01 A2986 RMK A01 T01401012  RH  035%=      5-min Rain = 0
KQU1 211913Z 14020KT 14/M01 A2986 RMK A01 T01411014  RH  034%=      5-min Rain = 0
KQU1 211914Z 14020KT 14/M02 A2986 RMK A01 T01401016  RH  034%=      5-min Rain = 0
KQU1 211915Z 14019KT 14/M02 A2986 RMK A01 T01401016  RH  034%=      5-min Rain = 0
KQU1 211916Z 13022KT 14/M02 A2986 RMK A01 T01401015  RH  034%=      5-min Rain = 0
KQU1 211917Z 14022G27KT 14/M02 A2986 RMK A01 T01411017  RH  034%=      5-min Rain = 0
KQU1 211918Z 16018KT 14/M02 A2985 RMK A01 T01391017  RH  034%=      5-min Rain = 0
KQU1 211919Z 15017KT 14/M02 A2985 RMK A01 T01371016  RH  035%=      5-min Rain = 0
KQU1 211920Z 13016KT 14/M01 A2985 RMK A01 T01371011  RH  036%=      5-min Rain = 0
KQU1 211921Z 12016KT 14/M01 A2985 RMK A01 T01391010  RH  036%=      5-min Rain = 0
KQU1 211922Z 12017KT 14/M01 A2985 RMK A01 T01391011  RH  036%=      5-min Rain = 0
KQU1 211923Z 13017KT 14/M01 A2985 RMK A01 T01401010  RH  036%=      5-min Rain = 0
KQU1 211924Z 14018KT 14/M01 A2985 RMK A01 T01411009  RH  036%=      5-min Rain = 0
KQU1 211925Z 14017KT 14/M01 A2985 RMK A01 T01431011  RH  035%=      5-min Rain = 0
KQU1 211926Z 16017KT 15/M01 A2985 RMK A01 T01451012  RH  034%=      5-min Rain = 0
KQU1 211927Z 15015KT 14/M01 A2985 RMK A01 T01441013  RH  034%=      5-min Rain = 0
KQU1 211928Z 17015KT 14/M01 A2985 RMK A01 T01421014  RH  034%=      5-min Rain = 0
KQU1 211929Z 15015G20KT 14/M01 A2985 RMK A01 T01421010  RH  035%=      5-min Rain = 0
KQU1 211930Z 14016KT 14/M01 A2985 RMK A01 T01441009  RH  035%=      5-min Rain = 0
KQU1 211931Z 15019KT 15/M02 A2985 RMK A01 T01461015  RH  033%=      5-min Rain = 0
KQU1 211932Z 14021KT 15/M02 A2985 RMK A01 T01461015  RH  033%=      5-min Rain = 0
KQU1 211933Z 13021KT 15/M02 A2985 RMK A01 T01461015  RH  033%=      5-min Rain = 0
KQU1 211934Z 13019KT 15/M02 A2985 RMK A01 T01461016  RH  033%=      5-min Rain = 0
KQU1 211935Z 14017KT 15/M02 A2985 RMK A01 T01451016  RH  033%=      5-min Rain = 0
KQU1 211936Z 15023KT 14/M02 A2985 RMK A01 T01441016  RH  033%=      5-min Rain = 0
KQU1 211937Z 15020KT 14/M02 A2984 RMK A01 T01431016  RH  033%=      5-min Rain = 0
KQU1 211938Z 15021G27KT 14/M01 A2984 RMK A01 T01441014  RH  034%=      5-min Rain = 0
KQU1 211939Z 15022G27KT 15/M02 A2984 RMK A01 T01451015  RH  033%=      5-min Rain = 0
KQU1 211940Z 15019G25KT 15/M02 A2984 RMK A01 T01451015  RH  033%=      5-min Rain = 0
KQU1 211941Z 14019KT 15/M02 A2984 RMK A01 T01471015  RH  033%=      5-min Rain = 0
KQU1 211942Z 15019G25KT 15/M02 A2984 RMK A01 T01471015  RH  033%=      5-min Rain = 0
KQU1 211943Z 16017KT 15/M02 A2984 RMK A01 T01461016  RH  033%=      5-min Rain = 0
KQU1 211944Z 15016KT 15/M02 A2984 RMK A01 T01451015  RH  033%=      5-min Rain = 0
KQU1 211945Z 15020G25KT 15/M01 A2984 RMK A01 T01451014  RH  033%=      5-min Rain = 0
KQU1 211946Z 14019KT 15/M01 A2984 RMK A01 T01461014  RH  033%=      5-min Rain = 0
KQU1 211947Z 14021G26KT 15/M01 A2984 RMK A01 T01481014  RH  033%=      5-min Rain = 0
KQU1 211948Z 15023KT 15/M01 A2983 RMK A01 T01491014  RH  033%=      5-min Rain = 0
KQU1 211949Z 15028KT 15/M02 A2983 RMK A01 T01491015  RH  032%=      5-min Rain = 0
KQU1 211950Z 16023G28KT 15/M02 A2983 RMK A01 T01461015  RH  033%=      5-min Rain = 0
KQU1 211951Z 15018KT 15/M01 A2983 RMK A01 T01461014  RH  033%=      5-min Rain = 0
KQU1 211952Z 15022KT 15/M01 A2983 RMK A01 T01461014  RH  033%=      5-min Rain = 0
KQU1 211953Z 15023KT 15/M01 A2983 RMK A01 T01461014  RH  033%=      5-min Rain = 0
KQU1 211954Z 14023KT 15/M01 A2983 RMK A01 T01461014  RH  033%=      5-min Rain = 0
KQU1 211955Z 15020G25KT 15/M01 A2983 RMK A01 T01471013  RH  033%=      5-min Rain = 0
KQU1 211956Z 15018KT 15/M01 A2983 RMK A01 T01481013  RH  033%=      5-min Rain = 0
KQU1 211957Z 16017KT 15/M01 A2983 RMK A01 T01491013  RH  033%=      5-min Rain = 0
KQU1 211958Z 15021KT 15/M01 A2983 RMK A01 T01491013  RH  033%=      5-min Rain = 0
KQU1 211959Z 14021KT 15/M01 A2983 RMK A01 T01491012  RH  033%=      5-min Rain = 0
KQU1 212000Z 15019KT 15/M01 A2983 RMK A01 T01501012  RH  033%=      5-min Rain = 0
KQU1 212001Z 16020KT 15/M01 A2983 RMK A01 T01501012  RH  033%=      5-min Rain = 0
KQU1 212002Z 16018KT 15/M01 A2983 RMK A01 T01481012  RH  033%=      5-min Rain = 0
KQU1 212003Z 16019KT 15/M01 A2983 RMK A01 T01481011  RH  033%=      5-min Rain = 0
KQU1 212004Z 16014KT 15/M01 A2983 RMK A01 T01491010  RH  034%=      5-min Rain = 0
KQU1 212005Z 16015KT 15/M01 A2983 RMK A01 T01491010  RH  033%=      5-min Rain = 0
KQU1 212006Z 13020KT 15/M01 A2983 RMK A01 T01501011  RH  033%=      5-min Rain = 0
KQU1 212007Z 13023KT 15/M01 A2983 RMK A01 T01511012  RH  033%=      5-min Rain = 0
KQU1 212008Z 14020KT 15/M01 A2983 RMK A01 T01521011  RH  033%=      5-min Rain = 0
KQU1 212009Z 15018KT 15/M01 A2983 RMK A01 T01531012  RH  032%=      5-min Rain = 0
KQU1 212010Z 16015KT 15/M01 A2983 RMK A01 T01521013  RH  032%=      5-min Rain = 0
KQU1 212011Z 15015KT 15/M01 A2982 RMK A01 T01501012  RH  033%=      5-min Rain = 0
KQU1 212012Z 14011KT 15/M01 A2982 RMK A01 T01511010  RH  033%=      5-min Rain = 0
KQU1 212013Z 15016G24KT 15/M01 A2982 RMK A01 T01531010  RH  033%=      5-min Rain = 0
KQU1 212014Z 14017KT 15/M01 A2982 RMK A01 T01521013  RH  032%=      5-min Rain = 0
KQU1 212015Z 13022KT 15/M01 A2982 RMK A01 T01521012  RH  032%=      5-min Rain = 0
KQU1 212016Z 13022G27KT 15/M01 A2982 RMK A01 T01501013  RH  033%=      5-min Rain = 0
KQU1 212017Z 14020KT 15/M01 A2982 RMK A01 T01511010  RH  033%=      5-min Rain = 0
KQU1 212018Z 14021KT 15/M01 A2982 RMK A01 T01531011  RH  033%=      5-min Rain = 0
KQU1 212019Z 13019G24KT 15/M01 A2982 RMK A01 T01531012  RH  032%=      5-min Rain = 0
KQU1 212020Z 14016KT 15/M01 A2982 RMK A01 T01521011  RH  033%=      5-min Rain = 0
KQU1 212021Z 13019KT 15/M01 A2982 RMK A01 T01531011  RH  032%=      5-min Rain = 0
KQU1 212022Z 13021KT 15/M01 A2982 RMK A01 T01531011  RH  032%=      5-min Rain = 0
KQU1 212023Z 14017KT 15/M01 A2982 RMK A01 T01521012  RH  032%=      5-min Rain = 0
KQU1 212024Z 14017G24KT 15/M01 A2982 RMK A01 T01531010  RH  033%=      5-min Rain = 0
KQU1 212025Z 14019KT 15/M01 A2982 RMK A01 T01541010  RH  032%=      5-min Rain = 0
KQU1 212026Z 15018KT 15/M01 A2982 RMK A01 T01541010  RH  032%=      5-min Rain = 0
KQU1 212027Z 15018G23KT 16/M01 A2982 RMK A01 T01551010  RH  032%=      5-min Rain = 0
KQU1 212028Z 14019KT 16/M01 A2982 RMK A01 T01551010  RH  032%=      5-min Rain = 0
KQU1 212029Z 15018KT 15/M01 A2982 RMK A01 T01541011  RH  032%=      5-min Rain = 0
KQU1 212030Z 15022KT 15/M01 A2982 RMK A01 T01531011  RH  033%=      5-min Rain = 0
KQU1 212031Z 15021KT 15/M01 A2982 RMK A01 T01521011  RH  033%=      5-min Rain = 0
KQU1 212032Z 16022KT 15/M01 A2982 RMK A01 T01511011  RH  033%=      5-min Rain = 0
KQU1 212033Z 15021KT 15/M01 A2982 RMK A01 T01491011  RH  033%=      5-min Rain = 0
KQU1 212034Z 13021G26KT 15/M01 A2982 RMK A01 T01491010  RH  033%=      5-min Rain = 0
KQU1 212035Z 13016KT 15/M01 A2982 RMK A01 T01511010  RH  033%=      5-min Rain = 0
KQU1 212036Z 14020KT 15/M01 A2982 RMK A01 T01521009  RH  033%=      5-min Rain = 0
KQU1 212037Z 14018G23KT 15/M01 A2981 RMK A01 T01541008  RH  033%=      5-min Rain = 0
KQU1 212038Z 14022G27KT 15/M01 A2981 RMK A01 T01541010  RH  032%=      5-min Rain = 0
KQU1 212039Z 15024KT 15/M01 A2981 RMK A01 T01531011  RH  033%=      5-min Rain = 0
KQU1 212040Z 14021G27KT 15/M01 A2981 RMK A01 T01521009  RH  033%=      5-min Rain = 0
KQU1 212041Z 15022KT 15/M01 A2981 RMK A01 T01541009  RH  033%=      5-min Rain = 0
KQU1 212042Z 14023KT 15/M01 A2982 RMK A01 T01531010  RH  033%=      5-min Rain = 0
KQU1 212043Z 15024KT 15/M01 A2982 RMK A01 T01521011  RH  033%=      5-min Rain = 0
KQU1 212044Z 14021KT 15/M01 A2982 RMK A01 T01501011  RH  033%=      5-min Rain = 0
KQU1 212045Z 15016KT 15/M01 A2981 RMK A01 T01501010  RH  033%=      5-min Rain = 0
KQU1 212046Z 15017G22KT 15/M01 A2981 RMK A01 T01511009  RH  033%=      5-min Rain = 0
KQU1 212047Z 15023KT 15/M01 A2981 RMK A01 T01511010  RH  033%=      5-min Rain = 0
KQU1 212048Z 15024KT 15/M01 A2981 RMK A01 T01501011  RH  033%=      5-min Rain = 0
KQU1 212049Z 15020G25KT 15/M01 A2982 RMK A01 T01481011  RH  033%=      5-min Rain = 0
KQU1 212050Z 14022KT 15/M01 A2982 RMK A01 T01491009  RH  034%=      5-min Rain = 0
KQU1 212051Z 14020G25KT 15/M01 A2982 RMK A01 T01501010  RH  033%=      5-min Rain = 0
KQU1 212052Z 15016KT 15/M01 A2982 RMK A01 T01501009  RH  034%=      5-min Rain = 0
KQU1 212053Z 16020G25KT 15/M01 A2981 RMK A01 T01511010  RH  033%=      5-min Rain = 0
KQU1 212054Z 13022KT 15/M01 A2982 RMK A01 T01491011  RH  033%=      5-min Rain = 0
KQU1 212055Z 14021KT 15/M01 A2982 RMK A01 T01491011  RH  033%=      5-min Rain = 0
KQU1 212056Z 14019KT 15/M01 A2982 RMK A01 T01481012  RH  033%=      5-min Rain = 0
KQU1 212057Z 13014KT 15/M01 A2981 RMK A01 T01481012  RH  033%=      5-min Rain = 0
KQU1 212058Z 14020G27KT 15/M01 A2981 RMK A01 T01491008  RH  034%=      5-min Rain = 0
KQU1 212059Z 15025KT 15/M01 A2981 RMK A01 T01501011  RH  033%=      5-min Rain = 0
KQU1 212100Z 14021KT 15/M01 A2982 RMK A01 T01491011  RH  033%=      5-min Rain = 0
KQU1 212101Z 15024KT 15/M01 A2982 RMK A01 T01491011  RH  033%=      5-min Rain = 0
KQU1 212102Z 15022KT 15/M01 A2982 RMK A01 T01471011  RH  034%=      5-min Rain = 0
KQU1 212103Z 15023KT 15/M01 A2982 RMK A01 T01471010  RH  034%=      5-min Rain = 0
KQU1 212104Z 14020KT 15/M01 A2982 RMK A01 T01481009  RH  034%=      5-min Rain = 0
KQU1 212105Z 14018G23KT 15/M01 A2982 RMK A01 T01501007  RH  034%=      5-min Rain = 0
KQU1 212106Z 13016KT 15/M01 A2982 RMK A01 T01521009  RH  033%=      5-min Rain = 0
KQU1 212107Z 14020KT 15/M01 A2982 RMK A01 T01531009  RH  033%=      5-min Rain = 0
KQU1 212108Z 13019KT 15/M01 A2982 RMK A01 T01531010  RH  033%=      5-min Rain = 0
KQU1 212109Z 13021KT 15/M01 A2982 RMK A01 T01521010  RH  033%=      5-min Rain = 0
KQU1 212110Z 14020KT 15/M01 A2982 RMK A01 T01511010  RH  033%=      5-min Rain = 0
KQU1 212111Z 14020G27KT 15/M01 A2981 RMK A01 T01511009  RH  033%=      5-min Rain = 0
KQU1 212112Z 14022G27KT 15/M01 A2981 RMK A01 T01501010  RH  033%=      5-min Rain = 0
KQU1 212113Z 14020KT 15/M01 A2981 RMK A01 T01501010  RH  033%=      5-min Rain = 0
KQU1 212114Z 14017KT 15/M01 A2981 RMK A01 T01501009  RH  034%=      5-min Rain = 0
KQU1 212115Z 15020G25KT 15/M01 A2981 RMK A01 T01501010  RH  033%=      5-min Rain = 0
KQU1 212116Z 14022KT 15/M01 A2981 RMK A01 T01511009  RH  033%=      5-min Rain = 0
KQU1 212117Z 14018KT 15/M01 A2981 RMK A01 T01521009  RH  033%=      5-min Rain = 0
KQU1 212118Z 13017KT 15/M01 A2981 RMK A01 T01531008  RH  033%=      5-min Rain = 0
KQU1 212119Z 13014KT 15/M01 A2981 RMK A01 T01541010  RH  033%=      5-min Rain = 0
KQU1 212120Z 15021G26KT 15/M01 A2981 RMK A01 T01541009  RH  033%=      5-min Rain = 0
KQU1 212121Z 15022KT 15/M01 A2981 RMK A01 T01531009  RH  033%=      5-min Rain = 0
KQU1 212122Z 14022KT 15/M01 A2981 RMK A01 T01511010  RH  033%=      5-min Rain = 0
KQU1 212123Z 14020KT 15/M01 A2981 RMK A01 T01501010  RH  033%=      5-min Rain = 0
KQU1 212124Z 13017KT 15/M01 A2981 RMK A01 T01501010  RH  033%=      5-min Rain = 0
KQU1 212125Z 14020KT 15/M01 A2981 RMK A01 T01491011  RH  033%=      5-min Rain = 0
KQU1 212126Z 13017KT 15/M01 A2981 RMK A01 T01491011  RH  033%=      5-min Rain = 0
KQU1 212127Z 14021KT 15/M01 A2981 RMK A01 T01491009  RH  034%=      5-min Rain = 0
KQU1 212128Z 14020KT 15/M01 A2981 RMK A01 T01491009  RH  034%=      5-min Rain = 0
KQU1 212129Z 13015KT 15/M01 A2981 RMK A01 T01491009  RH  034%=      5-min Rain = 0
KQU1 212130Z 13016KT 15/M01 A2981 RMK A01 T01501008  RH  034%=      5-min Rain = 0
KQU1 212131Z 13020KT 15/M01 A2981 RMK A01 T01521009  RH  033%=      5-min Rain = 0
KQU1 212132Z 14021KT 15/M01 A2981 RMK A01 T01521010  RH  033%=      5-min Rain = 0
KQU1 212133Z 15020KT 15/M01 A2981 RMK A01 T01511010  RH  033%=      5-min Rain = 0
KQU1 212134Z 14017KT 15/M01 A2981 RMK A01 T01511009  RH  033%=      5-min Rain = 0
KQU1 212135Z 13019KT 15/M01 A2981 RMK A01 T01501010  RH  033%=      5-min Rain = 0
KQU1 212136Z 13016G21KT 15/M01 A2981 RMK A01 T01501009  RH  034%=      5-min Rain = 0
KQU1 212137Z 14020KT 15/M01 A2981 RMK A01 T01501009  RH  033%=      5-min Rain = 0
KQU1 212138Z 14018KT 15/M01 A2981 RMK A01 T01511009  RH  033%=      5-min Rain = 0
KQU1 212139Z 14019KT 15/M01 A2981 RMK A01 T01511009  RH  033%=      5-min Rain = 0
KQU1 212140Z 14019KT 15/M01 A2981 RMK A01 T01511009  RH  033%=      5-min Rain = 0
KQU1 212141Z 15019KT 15/M01 A2981 RMK A01 T01511009  RH  033%=      5-min Rain = 0
KQU1 212142Z 14020KT 15/M01 A2981 RMK A01 T01491012  RH  033%=      5-min Rain = 0
KQU1 212143Z 13017KT 15/M01 A2981 RMK A01 T01481010  RH  034%=      5-min Rain = 0
KQU1 212144Z 13019KT 15/M01 A2981 RMK A01 T01481010  RH  034%=      5-min Rain = 0
KQU1 212145Z 14020KT 15/M01 A2981 RMK A01 T01481010  RH  034%=      5-min Rain = 0
KQU1 212146Z 14022KT 15/M01 A2981 RMK A01 T01481010  RH  034%=      5-min Rain = 0
KQU1 212147Z 14020G25KT 15/M01 A2981 RMK A01 T01481009  RH  034%=      5-min Rain = 0
KQU1 212148Z 14020KT 15/M01 A2981 RMK A01 T01491009  RH  034%=      5-min Rain = 0
KQU1 212149Z 14021KT 15/M01 A2981 RMK A01 T01491011  RH  033%=      5-min Rain = 0
KQU1 212150Z 14018KT 15/M01 A2981 RMK A01 T01481010  RH  034%=      5-min Rain = 0
KQU1 212151Z 14019KT 15/M01 A2981 RMK A01 T01491011  RH  034%=      5-min Rain = 0
KQU1 212152Z 14023KT 15/M01 A2981 RMK A01 T01481011  RH  034%=      5-min Rain = 0
KQU1 212153Z 15020KT 15/M01 A2981 RMK A01 T01481011  RH  034%=      5-min Rain = 0
KQU1 212154Z 15021KT 15/M01 A2981 RMK A01 T01471012  RH  034%=      5-min Rain = 0
KQU1 212155Z 15019KT 15/M01 A2981 RMK A01 T01461010  RH  034%=      5-min Rain = 0
KQU1 212156Z 14018KT 15/M01 A2981 RMK A01 T01461010  RH  034%=      5-min Rain = 0
KQU1 212157Z 14018G23KT 15/M01 A2981 RMK A01 T01471009  RH  034%=      5-min Rain = 0
KQU1 212158Z 15018KT 15/M01 A2981 RMK A01 T01491008  RH  034%=      5-min Rain = 0
KQU1 212159Z 15020KT 15/M01 A2981 RMK A01 T01491010  RH  034%=      5-min Rain = 0
KQU1 212200Z 14017KT 15/M01 A2981 RMK A01 T01481008  RH  034%=      5-min Rain = 0
KQU1 212201Z 14019G24KT 15/M01 A2981 RMK A01 T01491010  RH  034%=      5-min Rain = 0
KQU1 212202Z 14025KT 15/M01 A2981 RMK A01 T01491010  RH  034%=      5-min Rain = 0
KQU1 212203Z 14021KT 15/M01 A2981 RMK A01 T01481010  RH  034%=      5-min Rain = 0
KQU1 212204Z 14016KT 15/M01 A2981 RMK A01 T01481009  RH  034%=      5-min Rain = 0
KQU1 212205Z 15020KT 15/M01 A2981 RMK A01 T01491010  RH  034%=      5-min Rain = 0
KQU1 212206Z 14020KT 15/M01 A2981 RMK A01 T01491011  RH  033%=      5-min Rain = 0
KQU1 212207Z 14018KT 15/M01 A2981 RMK A01 T01491011  RH  033%=      5-min Rain = 0
KQU1 212208Z 13021KT 15/M01 A2981 RMK A01 T01491011  RH  033%=      5-min Rain = 0
KQU1 212209Z 14017KT 15/M01 A2981 RMK A01 T01491012  RH  033%=      5-min Rain = 0
KQU1 212210Z 15016KT 15/M01 A2981 RMK A01 T01501012  RH  033%=      5-min Rain = 0
KQU1 212211Z 15019G24KT 15/M01 A2981 RMK A01 T01501011  RH  033%=      5-min Rain = 0
KQU1 212212Z 15019KT 15/M01 A2981 RMK A01 T01501012  RH  033%=      5-min Rain = 0
KQU1 212213Z 13019KT 15/M01 A2981 RMK A01 T01501012  RH  033%=      5-min Rain = 0
KQU1 212214Z 13019G24KT 15/M01 A2981 RMK A01 T01491011  RH  033%=      5-min Rain = 0
KQU1 212215Z 13018KT 15/M01 A2981 RMK A01 T01491011  RH  033%=      5-min Rain = 0
KQU1 212216Z 13018KT 15/M01 A2981 RMK A01 T01491011  RH  033%=      5-min Rain = 0
KQU1 212217Z 14018KT 15/M01 A2981 RMK A01 T01491012  RH  033%=      5-min Rain = 0
KQU1 212218Z 13016KT 15/M01 A2981 RMK A01 T01491011  RH  033%=      5-min Rain = 0
KQU1 212219Z 14020KT 15/M01 A2981 RMK A01 T01501012  RH  033%=      5-min Rain = 0
KQU1 212220Z 14020KT 15/M01 A2981 RMK A01 T01491012  RH  033%=      5-min Rain = 0
KQU1 212221Z 14021KT 15/M01 A2982 RMK A01 T01481013  RH  033%=      5-min Rain = 0
KQU1 212222Z 14019KT 15/M01 A2982 RMK A01 T01471013  RH  033%=      5-min Rain = 0
KQU1 212223Z 14019KT 15/M01 A2982 RMK A01 T01461013  RH  033%=      5-min Rain = 0
KQU1 212224Z 14019KT 15/M01 A2982 RMK A01 T01461013  RH  033%=      5-min Rain = 0
KQU1 212225Z 15015KT 15/M01 A2982 RMK A01 T01471012  RH  034%=      5-min Rain = 0
KQU1 212226Z 14020KT 15/M01 A2982 RMK A01 T01471013  RH  033%=      5-min Rain = 0
KQU1 212227Z 13020KT 15/M01 A2982 RMK A01 T01471014  RH  033%=      5-min Rain = 0
KQU1 212228Z 13022G27KT 15/M02 A2982 RMK A01 T01461015  RH  033%=      5-min Rain = 0
KQU1 212229Z 13017KT 15/M01 A2982 RMK A01 T01451014  RH  033%=      5-min Rain = 0
KQU1 212230Z 13014KT 15/M01 A2982 RMK A01 T01461013  RH  033%=      5-min Rain = 0
KQU1 212231Z 12017KT 15/M02 A2982 RMK A01 T01471015  RH  033%=      5-min Rain = 0
KQU1 212232Z 12017G22KT 15/M01 A2982 RMK A01 T01461014  RH  033%=      5-min Rain = 0
KQU1 212233Z 13020KT 15/M01 A2982 RMK A01 T01461014  RH  033%=      5-min Rain = 0
KQU1 212234Z 14020KT 15/M01 A2982 RMK A01 T01461014  RH  033%=      5-min Rain = 0
KQU1 212235Z 14021KT 15/M01 A2982 RMK A01 T01471014  RH  033%=      5-min Rain = 0
KQU1 212236Z 14019KT 15/M01 A2982 RMK A01 T01461014  RH  033%=      5-min Rain = 0
KQU1 212237Z 15020KT 15/M02 A2982 RMK A01 T01461015  RH  033%=      5-min Rain = 0
KQU1 212238Z 15019KT 15/M02 A2982 RMK A01 T01451015  RH  033%=      5-min Rain = 0
KQU1 212239Z 13019G24KT 14/M02 A2982 RMK A01 T01441015  RH  033%=      5-min Rain = 0
KQU1 212240Z 14020KT 14/M02 A2982 RMK A01 T01441016  RH  033%=      5-min Rain = 0
KQU1 212241Z 13018KT 14/M02 A2982 RMK A01 T01441016  RH  033%=      5-min Rain = 0
KQU1 212242Z 13018KT 15/M02 A2982 RMK A01 T01451015  RH  033%=      5-min Rain = 0
KQU1 212243Z 13016KT 14/M02 A2982 RMK A01 T01441017  RH  033%=      5-min Rain = 0
KQU1 212244Z 12018KT 14/M02 A2982 RMK A01 T01431017  RH  033%=      5-min Rain = 0
KQU1 212245Z 12015G21KT 14/M02 A2982 RMK A01 T01431016  RH  033%=      5-min Rain = 0
KQU1 212246Z 12019KT 14/M02 A2982 RMK A01 T01431017  RH  033%=      5-min Rain = 0
KQU1 212247Z 12023KT 14/M02 A2982 RMK A01 T01431017  RH  033%=      5-min Rain = 0
KQU1 212248Z 12020G25KT 14/M02 A2982 RMK A01 T01411018  RH  033%=      5-min Rain = 0
KQU1 212249Z 12018G23KT 14/M02 A2982 RMK A01 T01401018  RH  034%=      5-min Rain = 0
KQU1 212250Z 13019KT 14/M02 A2982 RMK A01 T01411017  RH  034%=      5-min Rain = 0
KQU1 212251Z 12019G25KT 14/M02 A2982 RMK A01 T01411018  RH  033%=      5-min Rain = 0
KQU1 212252Z 12021KT 14/M02 A2982 RMK A01 T01401018  RH  034%=      5-min Rain = 0
KQU1 212253Z 13022KT 14/M02 A2982 RMK A01 T01401018  RH  034%=      5-min Rain = 0
KQU1 212254Z 13019KT 14/M02 A2982 RMK A01 T01391018  RH  034%=      5-min Rain = 0
KQU1 212255Z 13018KT 14/M02 A2982 RMK A01 T01391017  RH  034%=      5-min Rain = 0
KQU1 212256Z 14018KT 14/M02 A2982 RMK A01 T01401018  RH  034%=      5-min Rain = 0
KQU1 212257Z 13018KT 14/M02 A2982 RMK A01 T01401017  RH  034%=      5-min Rain = 0
KQU1 212258Z 13021KT 14/M02 A2982 RMK A01 T01401019  RH  033%=      5-min Rain = 0
KQU1 212259Z 13021KT 14/M02 A2982 RMK A01 T01391019  RH  033%=      5-min Rain = 0
KQU1 212300Z 13022KT 14/M02 A2982 RMK A01 T01381019  RH  034%=      5-min Rain = 0
KQU1 212301Z 14020KT 14/M02 A2982 RMK A01 T01381018  RH  034%=      5-min Rain = 0
KQU1 212302Z 14019KT 14/M02 A2982 RMK A01 T01381018  RH  034%=      5-min Rain = 0
KQU1 212303Z 13016KT 14/M02 A2982 RMK A01 T01381018  RH  034%=      5-min Rain = 0
KQU1 212304Z 12019KT 14/M02 A2982 RMK A01 T01381019  RH  034%=      5-min Rain = 0
KQU1 212305Z 13017KT 14/M02 A2982 RMK A01 T01381018  RH  034%=      5-min Rain = 0
KQU1 212306Z 13020KT 14/M02 A2983 RMK A01 T01381019  RH  034%=      5-min Rain = 0
KQU1 212307Z 13018KT 14/M02 A2983 RMK A01 T01371019  RH  034%=      5-min Rain = 0
KQU1 212308Z 13021KT 14/M02 A2983 RMK A01 T01371020  RH  034%=      5-min Rain = 0
KQU1 212309Z 13020KT 14/M02 A2983 RMK A01 T01361019  RH  034%=      5-min Rain = 0
KQU1 212310Z 13021KT 14/M02 A2983 RMK A01 T01361020  RH  034%=      5-min Rain = 0
KQU1 212311Z 13020KT 14/M02 A2983 RMK A01 T01351020  RH  034%=      5-min Rain = 0
KQU1 212312Z 13020KT 13/M02 A2983 RMK A01 T01341019  RH  034%=      5-min Rain = 0
KQU1 212313Z 14019KT 13/M02 A2983 RMK A01 T01341019  RH  034%=      5-min Rain = 0
KQU1 212314Z 13020KT 13/M02 A2983 RMK A01 T01341020  RH  034%=      5-min Rain = 0
KQU1 212315Z 13019KT 13/M02 A2983 RMK A01 T01341020  RH  034%=      5-min Rain = 0
KQU1 212316Z 13020G25KT 13/M02 A2983 RMK A01 T01331020  RH  035%=      5-min Rain = 0
KQU1 212317Z 13015KT 13/M02 A2983 RMK A01 T01331019  RH  035%=      5-min Rain = 0
KQU1 212318Z 13023KT 13/M02 A2983 RMK A01 T01331021  RH  034%=      5-min Rain = 0
KQU1 212319Z 13020KT 13/M02 A2983 RMK A01 T01331021  RH  034%=      5-min Rain = 0
KQU1 212320Z 13018KT 13/M02 A2983 RMK A01 T01321021  RH  035%=      5-min Rain = 0
KQU1 212321Z 13018KT 13/M02 A2983 RMK A01 T01321021  RH  034%=      5-min Rain = 0
KQU1 212322Z 13018KT 13/M02 A2983 RMK A01 T01321021  RH  035%=      5-min Rain = 0
KQU1 212323Z 13017KT 13/M02 A2983 RMK A01 T01321021  RH  035%=      5-min Rain = 0
KQU1 212324Z 14017KT 13/M02 A2983 RMK A01 T01321021  RH  035%=      5-min Rain = 0
KQU1 212325Z 14018KT 13/M02 A2983 RMK A01 T01311022  RH  034%=      5-min Rain = 0
KQU1 212326Z 13020KT 13/M02 A2983 RMK A01 T01311022  RH  035%=      5-min Rain = 0
KQU1 212327Z 13020KT 13/M02 A2983 RMK A01 T01311021  RH  035%=      5-min Rain = 0
KQU1 212328Z 13018KT 13/M02 A2983 RMK A01 T01311021  RH  035%=      5-min Rain = 0
KQU1 212329Z 13017KT 13/M02 A2983 RMK A01 T01301021  RH  035%=      5-min Rain = 0
KQU1 212330Z 13018KT 13/M02 A2983 RMK A01 T01301022  RH  035%=      5-min Rain = 0
KQU1 212331Z 13020KT 13/M02 A2983 RMK A01 T01291022  RH  035%=      5-min Rain = 0
KQU1 212332Z 13017KT 13/M02 A2983 RMK A01 T01291022  RH  035%=      5-min Rain = 0
KQU1 212333Z 13018KT 13/M02 A2983 RMK A01 T01291022  RH  035%=      5-min Rain = 0
KQU1 212334Z 12018G24KT 13/M02 A2983 RMK A01 T01281022  RH  035%=      5-min Rain = 0
KQU1 212335Z 14016KT 13/M02 A2983 RMK A01 T01281022  RH  035%=      5-min Rain = 0
KQU1 212336Z 13016KT 13/M02 A2983 RMK A01 T01281022  RH  035%=      5-min Rain = 0
KQU1 212337Z 13016G21KT 13/M02 A2983 RMK A01 T01271022  RH  035%=      5-min Rain = 0
KQU1 212338Z 13016G21KT 13/M02 A2983 RMK A01 T01271022  RH  035%=      5-min Rain = 0
KQU1 212339Z 13018KT 13/M02 A2983 RMK A01 T01271022  RH  035%=      5-min Rain = 0
KQU1 212340Z 12016KT 13/M02 A2983 RMK A01 T01261023  RH  035%=      5-min Rain = 0
KQU1 212341Z 12017KT 13/M02 A2983 RMK A01 T01261022  RH  036%=      5-min Rain = 0
KQU1 212342Z 13020KT 13/M02 A2983 RMK A01 T01251023  RH  036%=      5-min Rain = 0
KQU1 212343Z 13020KT 13/M02 A2983 RMK A01 T01251023  RH  036%=      5-min Rain = 0
KQU1 212344Z 12021KT 12/M02 A2983 RMK A01 T01241023  RH  036%=      5-min Rain = 0
KQU1 212345Z 13020KT 12/M02 A2983 RMK A01 T01231023  RH  036%=      5-min Rain = 0
KQU1 212346Z 12020KT 12/M02 A2983 RMK A01 T01231023  RH  036%=      5-min Rain = 0
KQU1 212347Z 13023KT 12/M02 A2983 RMK A01 T01231024  RH  036%=      5-min Rain = 0
KQU1 212348Z 13021KT 12/M02 A2983 RMK A01 T01221024  RH  036%=      5-min Rain = 0
KQU1 212349Z 13019KT 12/M02 A2983 RMK A01 T01221024  RH  036%=      5-min Rain = 0
KQU1 212350Z 13020KT 12/M02 A2983 RMK A01 T01221024  RH  036%=      5-min Rain = 0
KQU1 212351Z 12019KT 12/M02 A2983 RMK A01 T01221024  RH  036%=      5-min Rain = 0
KQU1 212352Z 13019KT 12/M03 A2983 RMK A01 T01211025  RH  036%=      5-min Rain = 0
KQU1 212353Z 13020KT 12/M03 A2983 RMK A01 T01211025  RH  036%=      5-min Rain = 0
KQU1 212354Z 13019KT 12/M03 A2983 RMK A01 T01211025  RH  036%=      5-min Rain = 0
KQU1 212355Z 13017KT 12/M03 A2983 RMK A01 T01201025  RH  036%=      5-min Rain = 0
KQU1 212356Z 13017KT 12/M03 A2983 RMK A01 T01201025  RH  036%=      5-min Rain = 0
KQU1 212357Z 13017KT 12/M03 A2983 RMK A01 T01201025  RH  036%=      5-min Rain = 0
KQU1 212358Z 13019KT 12/M03 A2983 RMK A01 T01191025  RH  036%=      5-min Rain = 0
KQU1 212359Z 13016KT 12/M03 A2983 RMK A01 T01181025  RH  037%=      5-min Rain = 0
KQU1 220000Z 13019KT 12/M03 A2983 RMK A01 T01181026  RH  037%=      5-min Rain = 0
KQU1 220001Z 13018KT 12/M03 A2983 RMK A01 T01171026  RH  037%=      5-min Rain = 0
KQU1 220002Z 13017KT 12/M03 A2983 RMK A01 T01171026  RH  037%=      5-min Rain = 0
KQU1 220003Z 13018KT 12/M03 A2983 RMK A01 T01161026  RH  037%=      5-min Rain = 0
KQU1 220004Z 13015KT 12/M03 A2983 RMK A01 T01161026  RH  037%=      5-min Rain = 0
KQU1 220005Z 13018KT 12/M03 A2983 RMK A01 T01161026  RH  037%=      5-min Rain = 0
KQU1 220006Z 13020KT 12/M03 A2983 RMK A01 T01151026  RH  037%=      5-min Rain = 0
KQU1 220007Z 13015KT 12/M03 A2983 RMK A01 T01151026  RH  037%=      5-min Rain = 0
KQU1 220008Z 13019KT 12/M03 A2983 RMK A01 T01151027  RH  037%=      5-min Rain = 0
KQU1 220009Z 13016KT 11/M03 A2984 RMK A01 T01141027  RH  037%=      5-min Rain = 0
KQU1 220010Z 13017KT 11/M03 A2984 RMK A01 T01141027  RH  037%=      5-min Rain = 0
KQU1 220011Z 13018KT 11/M03 A2984 RMK A01 T01131027  RH  037%=      5-min Rain = 0
KQU1 220012Z 13020KT 11/M03 A2984 RMK A01 T01121028  RH  037%=      5-min Rain = 0
KQU1 220013Z 13019KT 11/M03 A2984 RMK A01 T01121028  RH  037%=      5-min Rain = 0
KQU1 220014Z 12020KT 11/M03 A2984 RMK A01 T01111029  RH  037%=      5-min Rain = 0
KQU1 220015Z 13019KT 11/M03 A2984 RMK A01 T01101029  RH  038%=      5-min Rain = 0
KQU1 220016Z 12017KT 11/M03 A2984 RMK A01 T01101029  RH  038%=      5-min Rain = 0
KQU1 220017Z 12016KT 11/M03 A2984 RMK A01 T01091029  RH  038%=      5-min Rain = 0
KQU1 220018Z 12015KT 11/M03 A2984 RMK A01 T01081029  RH  038%=      5-min Rain = 0
KQU1 220019Z 12015KT 11/M03 A2984 RMK A01 T01071029  RH  038%=      5-min Rain = 0
KQU1 220020Z 12016KT 11/M03 A2984 RMK A01 T01061029  RH  039%=      5-min Rain = 0
KQU1 220021Z 12016KT 11/M03 A2984 RMK A01 T01051029  RH  039%=      5-min Rain = 0
KQU1 220022Z 12016KT 11/M03 A2984 RMK A01 T01051029  RH  039%=      5-min Rain = 0
KQU1 220023Z 13015KT 10/M03 A2984 RMK A01 T01041029  RH  039%=      5-min Rain = 0
KQU1 220024Z 13015KT 10/M03 A2985 RMK A01 T01031029  RH  039%=      5-min Rain = 0
KQU1 220025Z 12017KT 10/M03 A2985 RMK A01 T01031029  RH  040%=      5-min Rain = 0
KQU1 220026Z 13016KT 10/M03 A2985 RMK A01 T01021029  RH  040%=      5-min Rain = 0
KQU1 220027Z 13015KT 10/M03 A2985 RMK A01 T01021029  RH  040%=      5-min Rain = 0
KQU1 220028Z 13013KT 10/M03 A2985 RMK A01 T01021029  RH  040%=      5-min Rain = 0
KQU1 220029Z 13015G20KT 10/M03 A2985 RMK A01 T01011029  RH  040%=      5-min Rain = 0
KQU1 220030Z 13015KT 10/M03 A2985 RMK A01 T01011028  RH  040%=      5-min Rain = 0
KQU1 220031Z 13013KT 10/M03 A2985 RMK A01 T01001029  RH  040%=      5-min Rain = 0
KQU1 220032Z 13016KT 10/M03 A2985 RMK A01 T01001028  RH  041%=      5-min Rain = 0
KQU1 220033Z 13014KT 10/M03 A2985 RMK A01 T00991029  RH  041%=      5-min Rain = 0
KQU1 220034Z 13015KT 10/M03 A2985 RMK A01 T00991028  RH  041%=      5-min Rain = 0
KQU1 220035Z 13018KT 10/M03 A2985 RMK A01 T00991028  RH  041%=      5-min Rain = 0
KQU1 220036Z 13016KT 10/M03 A2985 RMK A01 T00991028  RH  041%=      5-min Rain = 0
KQU1 220037Z 13014KT 10/M03 A2986 RMK A01 T00991028  RH  041%=      5-min Rain = 0
KQU1 220038Z 12014KT 10/M03 A2986 RMK A01 T00981028  RH  041%=      5-min Rain = 0
KQU1 220039Z 12015KT 10/M03 A2986 RMK A01 T00971028  RH  041%=      5-min Rain = 0
KQU1 220040Z 12013KT 10/M03 A2986 RMK A01 T00971028  RH  041%=      5-min Rain = 0
KQU1 220041Z 12014KT 10/M03 A2986 RMK A01 T00961028  RH  042%=      5-min Rain = 0
KQU1 220042Z 12012KT 10/M03 A2986 RMK A01 T00951028  RH  042%=      5-min Rain = 0
KQU1 220043Z 12014KT 09/M03 A2986 RMK A01 T00941028  RH  042%=      5-min Rain = 0
KQU1 220044Z 12014KT 09/M03 A2986 RMK A01 T00931028  RH  043%=      5-min Rain = 0
KQU1 220045Z 12012KT 09/M03 A2986 RMK A01 T00921028  RH  043%=      5-min Rain = 0
KQU1 220046Z 12012KT 09/M03 A2986 RMK A01 T00921028  RH  043%=      5-min Rain = 0
KQU1 220047Z 12012KT 09/M03 A2986 RMK A01 T00911028  RH  043%=      5-min Rain = 0
KQU1 220048Z 12012KT 09/M03 A2986 RMK A01 T00901028  RH  043%=      5-min Rain = 0
KQU1 220049Z 13013KT 09/M03 A2986 RMK A01 T00901028  RH  043%=      5-min Rain = 0
KQU1 220050Z 12013KT 09/M03 A2986 RMK A01 T00891028  RH  044%=      5-min Rain = 0
KQU1 220051Z 12011KT 09/M03 A2986 RMK A01 T00891028  RH  044%=      5-min Rain = 0
KQU1 220052Z 12012KT 09/M03 A2986 RMK A01 T00881028  RH  044%=      5-min Rain = 0
KQU1 220053Z 12013KT 09/M03 A2986 RMK A01 T00881028  RH  044%=      5-min Rain = 0
KQU1 220054Z 12012KT 09/M03 A2986 RMK A01 T00871028  RH  044%=      5-min Rain = 0
KQU1 220055Z 12012KT 09/M03 A2986 RMK A01 T00871028  RH  044%=      5-min Rain = 0
KQU1 220056Z 12012KT 09/M03 A2986 RMK A01 T00871028  RH  044%=      5-min Rain = 0
KQU1 220057Z 12011KT 09/M03 A2986 RMK A01 T00871028  RH  044%=      5-min Rain = 0
KQU1 220058Z 12011KT 09/M03 A2986 RMK A01 T00861028  RH  044%=      5-min Rain = 0
KQU1 220059Z 12011KT 09/M03 A2986 RMK A01 T00851028  RH  045%=      5-min Rain = 0
KQU1 220100Z 12012KT 08/M03 A2986 RMK A01 T00841028  RH  045%=      5-min Rain = 0
KQU1 220101Z 12012KT 08/M03 A2986 RMK A01 T00841028  RH  045%=      5-min Rain = 0
KQU1 220102Z 12011KT 08/M03 A2986 RMK A01 T00831028  RH  045%=      5-min Rain = 0
KQU1 220103Z 12011KT 08/M03 A2986 RMK A01 T00831028  RH  045%=      5-min Rain = 0
KQU1 220104Z 12010KT 08/M03 A2986 RMK A01 T00821028  RH  046%=      5-min Rain = 0
KQU1 220105Z 13009KT 08/M03 A2986 RMK A01 T00821029  RH  046%=      5-min Rain = 0
KQU1 220106Z 12010KT 08/M03 A2987 RMK A01 T00811029  RH  046%=      5-min Rain = 0
KQU1 220107Z 13010KT 08/M03 A2987 RMK A01 T00801028  RH  046%=      5-min Rain = 0
KQU1 220108Z 13010KT 08/M03 A2987 RMK A01 T00801028  RH  046%=      5-min Rain = 0
KQU1 220109Z 13010KT 08/M03 A2987 RMK A01 T00791028  RH  047%=      5-min Rain = 0
KQU1 220110Z 12009KT 08/M03 A2987 RMK A01 T00791028  RH  047%=      5-min Rain = 0
KQU1 220111Z 12011KT 08/M03 A2987 RMK A01 T00791028  RH  047%=      5-min Rain = 0
KQU1 220112Z 12010KT 08/M03 A2987 RMK A01 T00791028  RH  047%=      5-min Rain = 0
KQU1 220113Z 12012KT 08/M03 A2987 RMK A01 T00781028  RH  047%=      5-min Rain = 0
KQU1 220114Z 12014KT 08/M03 A2987 RMK A01 T00791028  RH  047%=      5-min Rain = 0
KQU1 220115Z 12013KT 08/M03 A2987 RMK A01 T00791028  RH  047%=      5-min Rain = 0
KQU1 220116Z 12012KT 08/M03 A2987 RMK A01 T00791029  RH  046%=      5-min Rain = 0
KQU1 220117Z 12012KT 08/M03 A2987 RMK A01 T00781029  RH  046%=      5-min Rain = 0
KQU1 220118Z 12012KT 08/M03 A2987 RMK A01 T00781029  RH  047%=      5-min Rain = 0
KQU1 220119Z 12012KT 08/M03 A2987 RMK A01 T00781030  RH  047%=      5-min Rain = 0
KQU1 220120Z 12012KT 08/M03 A2987 RMK A01 T00771030  RH  047%=      5-min Rain = 0
KQU1 220121Z 12013KT 08/M03 A2987 RMK A01 T00771030  RH  047%=      5-min Rain = 0
KQU1 220122Z 12013KT 08/M03 A2987 RMK A01 T00761031  RH  047%=      5-min Rain = 0
KQU1 220123Z 13013KT 08/M03 A2987 RMK A01 T00761031  RH  047%=      5-min Rain = 0
KQU1 220124Z 13012KT 08/M03 A2987 RMK A01 T00761032  RH  047%=      5-min Rain = 0
KQU1 220125Z 13013KT 08/M03 A2987 RMK A01 T00751032  RH  047%=      5-min Rain = 0
KQU1 220126Z 13014KT 08/M03 A2987 RMK A01 T00751032  RH  047%=      5-min Rain = 0
KQU1 220127Z 13014KT 08/M03 A2987 RMK A01 T00751032  RH  046%=      5-min Rain = 0
KQU1 220128Z 13013KT 08/M03 A2987 RMK A01 T00751033  RH  046%=      5-min Rain = 0
KQU1 220129Z 13014KT 08/M03 A2987 RMK A01 T00751033  RH  046%=      5-min Rain = 0
KQU1 220130Z 13017KT 08/M03 A2988 RMK A01 T00751033  RH  046%=      5-min Rain = 0
KQU1 220131Z 13015KT 08/M03 A2988 RMK A01 T00751034  RH  046%=      5-min Rain = 0
KQU1 220132Z 13015KT 08/M03 A2988 RMK A01 T00751034  RH  046%=      5-min Rain = 0
KQU1 220133Z 13013KT 08/M04 A2988 RMK A01 T00751035  RH  046%=      5-min Rain = 0
KQU1 220134Z 13014KT 07/M04 A2988 RMK A01 T00741035  RH  046%=      5-min Rain = 0
KQU1 220135Z 13013KT 07/M04 A2988 RMK A01 T00741035  RH  046%=      5-min Rain = 0
KQU1 220136Z 14014KT 07/M04 A2988 RMK A01 T00731035  RH  046%=      5-min Rain = 0
KQU1 220137Z 14013KT 07/M04 A2988 RMK A01 T00731035  RH  046%=      5-min Rain = 0
KQU1 220138Z 13013KT 07/M04 A2988 RMK A01 T00721036  RH  046%=      5-min Rain = 0
KQU1 220139Z 13012KT 07/M04 A2988 RMK A01 T00721036  RH  046%=      5-min Rain = 0
KQU1 220140Z 13012KT 07/M04 A2988 RMK A01 T00711036  RH  046%=      5-min Rain = 0
KQU1 220141Z 13012KT 07/M04 A2988 RMK A01 T00701036  RH  047%=      5-min Rain = 0
KQU1 220142Z 13011KT 07/M04 A2988 RMK A01 T00701036  RH  047%=      5-min Rain = 0
KQU1 220143Z 13012KT 07/M04 A2988 RMK A01 T00691036  RH  047%=      5-min Rain = 0
KQU1 220144Z 13013KT 07/M04 A2988 RMK A01 T00681036  RH  047%=      5-min Rain = 0
KQU1 220145Z 13011KT 07/M04 A2988 RMK A01 T00681036  RH  047%=      5-min Rain = 0
KQU1 220146Z 13009KT 07/M04 A2988 RMK A01 T00681037  RH  047%=      5-min Rain = 0
KQU1 220147Z 13011KT 07/M04 A2988 RMK A01 T00671037  RH  047%=      5-min Rain = 0
KQU1 220148Z 13011KT 07/M04 A2988 RMK A01 T00661037  RH  048%=      5-min Rain = 0
KQU1 220149Z 13012KT 07/M04 A2989 RMK A01 T00661037  RH  048%=      5-min Rain = 0
KQU1 220150Z 12011KT 07/M04 A2989 RMK A01 T00661037  RH  048%=      5-min Rain = 0
KQU1 220151Z 13011KT 07/M04 A2989 RMK A01 T00661037  RH  048%=      5-min Rain = 0
KQU1 220152Z 12011KT 07/M04 A2989 RMK A01 T00661037  RH  048%=      5-min Rain = 0
KQU1 220153Z 12011KT 07/M04 A2989 RMK A01 T00661037  RH  048%=      5-min Rain = 0
KQU1 220154Z 13012KT 07/M04 A2989 RMK A01 T00651037  RH  048%=      5-min Rain = 0
KQU1 220155Z 13011KT 07/M04 A2989 RMK A01 T00651037  RH  048%=      5-min Rain = 0
KQU1 220156Z 13011KT 07/M04 A2989 RMK A01 T00651037  RH  048%=      5-min Rain = 0
KQU1 220157Z 13010KT 06/M04 A2989 RMK A01 T00641037  RH  048%=      5-min Rain = 0
KQU1 220158Z 13011KT 06/M04 A2989 RMK A01 T00641038  RH  048%=      5-min Rain = 0
KQU1 220159Z 13012KT 06/M04 A2989 RMK A01 T00631038  RH  048%=      5-min Rain = 0
KQU1 220200Z 13011KT 06/M04 A2989 RMK A01 T00631038  RH  048%=      5-min Rain = 0
KQU1 220201Z 13012KT 06/M04 A2989 RMK A01 T00631038  RH  049%=      5-min Rain = 0
KQU1 220202Z 13010KT 06/M04 A2989 RMK A01 T00621038  RH  049%=      5-min Rain = 0
KQU1 220203Z 13010KT 06/M04 A2989 RMK A01 T00621038  RH  049%=      5-min Rain = 0
KQU1 220204Z 13010KT 06/M04 A2989 RMK A01 T00611038  RH  049%=      5-min Rain = 0
KQU1 220205Z 13012KT 06/M04 A2989 RMK A01 T00611039  RH  049%=      5-min Rain = 0
KQU1 220206Z 13011KT 06/M04 A2989 RMK A01 T00601038  RH  049%=      5-min Rain = 0
KQU1 220207Z 13011KT 06/M04 A2989 RMK A01 T00601039  RH  049%=      5-min Rain = 0
KQU1 220208Z 13012KT 06/M04 A2989 RMK A01 T00601039  RH  049%=      5-min Rain = 0
KQU1 220209Z 13011KT 06/M04 A2989 RMK A01 T00601039  RH  049%=      5-min Rain = 0
KQU1 220210Z 13012KT 06/M04 A2989 RMK A01 T00601039  RH  049%=      5-min Rain = 0
KQU1 220211Z 13012KT 06/M04 A2989 RMK A01 T00601039  RH  049%=      5-min Rain = 0
KQU1 220212Z 12011KT 06/M04 A2989 RMK A01 T00601039  RH  049%=      5-min Rain = 0
KQU1 220213Z 13012KT 06/M04 A2989 RMK A01 T00591039  RH  049%=      5-min Rain = 0
KQU1 220214Z 13011KT 06/M04 A299 RMK A01 T00591039  RH  049%=      5-min Rain = 0
KQU1 220215Z 12012KT 06/M04 A299 RMK A01 T00591039  RH  049%=      5-min Rain = 0
KQU1 220216Z 13011KT 06/M04 A299 RMK A01 T00591039  RH  049%=      5-min Rain = 0
KQU1 220217Z 12011KT 06/M04 A299 RMK A01 T00581039  RH  050%=      5-min Rain = 0
KQU1 220218Z 12010KT 06/M04 A299 RMK A01 T00581039  RH  050%=      5-min Rain = 0
KQU1 220219Z 12010KT 06/M04 A299 RMK A01 T00581039  RH  050%=      5-min Rain = 0
KQU1 220220Z 12011KT 06/M04 A299 RMK A01 T00581039  RH  050%=      5-min Rain = 0
KQU1 220221Z 12010KT 06/M04 A299 RMK A01 T00581039  RH  050%=      5-min Rain = 0
KQU1 220222Z 12011KT 06/M04 A299 RMK A01 T00581039  RH  050%=      5-min Rain = 0
KQU1 220223Z 12010KT 06/M04 A299 RMK A01 T00581039  RH  050%=      5-min Rain = 0
KQU1 220224Z 12010KT 06/M04 A299 RMK A01 T00571039  RH  050%=      5-min Rain = 0
KQU1 220225Z 12010KT 06/M04 A299 RMK A01 T00571039  RH  050%=      5-min Rain = 0
KQU1 220226Z 13009KT 06/M04 A299 RMK A01 T00561040  RH  050%=      5-min Rain = 0
KQU1 220227Z 13010KT 06/M04 A299 RMK A01 T00561040  RH  050%=      5-min Rain = 0
KQU1 220228Z 13010KT 06/M04 A299 RMK A01 T00551040  RH  050%=      5-min Rain = 0
KQU1 220229Z 13011KT 06/M04 A299 RMK A01 T00551040  RH  051%=      5-min Rain = 0
KQU1 220230Z 13010KT 05/M04 A299 RMK A01 T00541040  RH  051%=      5-min Rain = 0
KQU1 220231Z 13010KT 05/M04 A299 RMK A01 T00541040  RH  051%=      5-min Rain = 0
KQU1 220232Z 13010KT 05/M04 A299 RMK A01 T00531040  RH  051%=      5-min Rain = 0
KQU1 220233Z 13010KT 05/M04 A299 RMK A01 T00521040  RH  051%=      5-min Rain = 0
KQU1 220234Z 13009KT 05/M04 A299 RMK A01 T00521040  RH  052%=      5-min Rain = 0
KQU1 220235Z 13010KT 05/M04 A299 RMK A01 T00511040  RH  052%=      5-min Rain = 0
KQU1 220236Z 13010KT 05/M04 A299 RMK A01 T00511039  RH  052%=      5-min Rain = 0
KQU1 220237Z 13010KT 05/M04 A299 RMK A01 T00511039  RH  052%=      5-min Rain = 0
KQU1 220238Z 13009KT 05/M04 A299 RMK A01 T00511039  RH  052%=      5-min Rain = 0
KQU1 220239Z 13009KT 05/M04 A299 RMK A01 T00511039  RH  052%=      5-min Rain = 0
KQU1 220240Z 13010KT 05/M04 A299 RMK A01 T00511039  RH  052%=      5-min Rain = 0
KQU1 220241Z 13010KT 05/M04 A299 RMK A01 T00501039  RH  052%=      5-min Rain = 0
KQU1 220242Z 14010KT 05/M04 A2991 RMK A01 T00501039  RH  052%=      5-min Rain = 0
KQU1 220243Z 14010KT 05/M04 A2991 RMK A01 T00501039  RH  052%=      5-min Rain = 0
KQU1 220244Z 13010KT 05/M04 A2991 RMK A01 T00501039  RH  052%=      5-min Rain = 0
KQU1 220245Z 13009KT 05/M04 A2991 RMK A01 T00491039  RH  053%=      5-min Rain = 0
KQU1 220246Z 13009KT 05/M04 A2991 RMK A01 T00491039  RH  053%=      5-min Rain = 0
KQU1 220247Z 13008KT 05/M04 A2991 RMK A01 T00491039  RH  053%=      5-min Rain = 0
KQU1 220248Z 13009KT 05/M04 A2991 RMK A01 T00481039  RH  053%=      5-min Rain = 0
KQU1 220249Z 13009KT 05/M04 A2991 RMK A01 T00481039  RH  053%=      5-min Rain = 0
KQU1 220250Z 13009KT 05/M04 A2991 RMK A01 T00481039  RH  053%=      5-min Rain = 0
KQU1 220251Z 13010KT 05/M04 A2991 RMK A01 T00481038  RH  053%=      5-min Rain = 0
KQU1 220252Z 13009KT 05/M04 A2991 RMK A01 T00481039  RH  053%=      5-min Rain = 0
KQU1 220253Z 12008KT 05/M04 A2991 RMK A01 T00481039  RH  053%=      5-min Rain = 0
KQU1 220254Z 13009KT 05/M04 A2991 RMK A01 T00471039  RH  054%=      5-min Rain = 0
KQU1 220255Z 13009KT 05/M04 A2991 RMK A01 T00471039  RH  054%=      5-min Rain = 0
KQU1 220256Z 12010KT 05/M04 A2991 RMK A01 T00471039  RH  054%=      5-min Rain = 0
KQU1 220257Z 13008KT 05/M04 A2991 RMK A01 T00461039  RH  054%=      5-min Rain = 0
KQU1 220258Z 13009KT 05/M04 A2991 RMK A01 T00461039  RH  054%=      5-min Rain = 0
KQU1 220259Z 13009KT 05/M04 A2991 RMK A01 T00461039  RH  054%=      5-min Rain = 0
KQU1 220300Z 13009KT 05/M04 A2991 RMK A01 T00461039  RH  054%=      5-min Rain = 0
KQU1 220301Z 13008KT 05/M04 A2991 RMK A01 T00451039  RH  054%=      5-min Rain = 0
KQU1 220302Z 13010KT 05/M04 A2991 RMK A01 T00451039  RH  054%=      5-min Rain = 0
KQU1 220303Z 13008KT 05/M04 A2992 RMK A01 T00451039  RH  054%=      5-min Rain = 0
KQU1 220304Z 13008KT 04/M04 A2992 RMK A01 T00441039  RH  055%=      5-min Rain = 0
KQU1 220305Z 13009KT 04/M04 A2992 RMK A01 T00441039  RH  055%=      5-min Rain = 0
KQU1 220306Z 13010KT 04/M04 A2992 RMK A01 T00431039  RH  055%=      5-min Rain = 0
KQU1 220307Z 13009KT 04/M04 A2992 RMK A01 T00431039  RH  055%=      5-min Rain = 0
KQU1 220308Z 14009KT 04/M04 A2992 RMK A01 T00431039  RH  055%=      5-min Rain = 0
KQU1 220309Z 14009KT 04/M04 A2992 RMK A01 T00431039  RH  055%=      5-min Rain = 0
KQU1 220310Z 14009KT 04/M04 A2992 RMK A01 T00421039  RH  056%=      5-min Rain = 0
KQU1 220311Z 14009KT 04/M04 A2992 RMK A01 T00421039  RH  056%=      5-min Rain = 0
KQU1 220312Z 13009KT 04/M04 A2992 RMK A01 T00421039  RH  056%=      5-min Rain = 0
KQU1 220313Z 13009KT 04/M04 A2992 RMK A01 T00421039  RH  056%=      5-min Rain = 0
KQU1 220314Z 13009KT 04/M04 A2992 RMK A01 T00411039  RH  056%=      5-min Rain = 0
KQU1 220315Z 13009KT 04/M04 A2992 RMK A01 T00411039  RH  056%=      5-min Rain = 0
KQU1 220316Z 13008KT 04/M04 A2992 RMK A01 T00401040  RH  056%=      5-min Rain = 0
KQU1 220317Z 14009KT 04/M04 A2992 RMK A01 T00391040  RH  056%=      5-min Rain = 0
KQU1 220318Z 13008KT 04/M04 A2992 RMK A01 T00391040  RH  056%=      5-min Rain = 0
KQU1 220319Z 14008KT 04/M04 A2992 RMK A01 T00381040  RH  057%=      5-min Rain = 0
KQU1 220320Z 13009KT 04/M04 A2992 RMK A01 T00371040  RH  057%=      5-min Rain = 0
KQU1 220321Z 13008KT 04/M04 A2992 RMK A01 T00371040  RH  057%=      5-min Rain = 0
KQU1 220322Z 13007KT 04/M04 A2992 RMK A01 T00371040  RH  057%=      5-min Rain = 0
KQU1 220323Z 14008KT 04/M04 A2992 RMK A01 T00361040  RH  057%=      5-min Rain = 0
KQU1 220324Z 14008KT 04/M04 A2992 RMK A01 T00361040  RH  058%=      5-min Rain = 0
KQU1 220325Z 14007KT 04/M04 A2992 RMK A01 T00361040  RH  058%=      5-min Rain = 0
KQU1 220326Z 14007KT 04/M04 A2992 RMK A01 T00361040  RH  058%=      5-min Rain = 0
KQU1 220327Z 14007KT 04/M04 A2992 RMK A01 T00361040  RH  058%=      5-min Rain = 0
KQU1 220328Z 13008KT 04/M04 A2992 RMK A01 T00351039  RH  058%=      5-min Rain = 0
KQU1 220329Z 14008KT 04/M04 A2992 RMK A01 T00351039  RH  058%=      5-min Rain = 0
KQU1 220330Z 14007KT 04/M04 A2992 RMK A01 T00351039  RH  058%=      5-min Rain = 0
KQU1 220331Z 14008KT 04/M04 A2992 RMK A01 T00351040  RH  058%=      5-min Rain = 0
KQU1 220332Z 14008KT 04/M04 A2992 RMK A01 T00351039  RH  058%=      5-min Rain = 0
KQU1 220333Z 14008KT 04/M04 A2992 RMK A01 T00351040  RH  058%=      5-min Rain = 0
KQU1 220334Z 14007KT 03/M04 A2992 RMK A01 T00341040  RH  058%=      5-min Rain = 0
KQU1 220335Z 14007KT 03/M04 A2993 RMK A01 T00341040  RH  059%=      5-min Rain = 0
KQU1 220336Z 14007KT 03/M04 A2993 RMK A01 T00331040  RH  059%=      5-min Rain = 0
KQU1 220337Z 14007KT 03/M04 A2993 RMK A01 T00331040  RH  059%=      5-min Rain = 0
KQU1 220338Z 14007KT 03/M04 A2993 RMK A01 T00321040  RH  059%=      5-min Rain = 0
KQU1 220339Z 14008KT 03/M04 A2993 RMK A01 T00321040  RH  059%=      5-min Rain = 0
KQU1 220340Z 14007KT 03/M04 A2993 RMK A01 T00311040  RH  059%=      5-min Rain = 0
KQU1 220341Z 14007KT 03/M04 A2993 RMK A01 T00311040  RH  060%=      5-min Rain = 0
KQU1 220342Z 14007KT 03/M04 A2993 RMK A01 T00311040  RH  060%=      5-min Rain = 0
KQU1 220343Z 14006KT 03/M04 A2993 RMK A01 T00311039  RH  060%=      5-min Rain = 0
KQU1 220344Z 14007KT 03/M04 A2993 RMK A01 T00311039  RH  060%=      5-min Rain = 0
KQU1 220345Z 13007KT 03/M04 A2993 RMK A01 T00311039  RH  060%=      5-min Rain = 0
KQU1 220346Z 13006KT 03/M04 A2993 RMK A01 T00311039  RH  060%=      5-min Rain = 0
KQU1 220347Z 13007KT 03/M04 A2993 RMK A01 T00311039  RH  060%=      5-min Rain = 0
KQU1 220348Z 14008KT 03/M04 A2993 RMK A01 T00311038  RH  060%=      5-min Rain = 0
KQU1 220349Z 13006KT 03/M04 A2993 RMK A01 T00311038  RH  060%=      5-min Rain = 0
KQU1 220350Z 13006KT 03/M04 A2993 RMK A01 T00321038  RH  060%=      5-min Rain = 0
KQU1 220351Z 12006KT 03/M04 A2993 RMK A01 T00321038  RH  060%=      5-min Rain = 0
KQU1 220352Z 13005KT 03/M04 A2993 RMK A01 T00321038  RH  060%=      5-min Rain = 0
KQU1 220353Z 13004KT 03/M04 A2993 RMK A01 T00321039  RH  060%=      5-min Rain = 0
KQU1 220354Z 13005KT 03/M04 A2993 RMK A01 T00311039  RH  060%=      5-min Rain = 0
KQU1 220355Z 13005KT 03/M04 A2993 RMK A01 T00311039  RH  060%=      5-min Rain = 0
KQU1 220356Z 14005KT 03/M04 A2994 RMK A01 T00311038  RH  060%=      5-min Rain = 0
KQU1 220357Z 13005KT 03/M04 A2994 RMK A01 T00301039  RH  060%=      5-min Rain = 0
KQU1 220358Z 14004KT 03/M04 A2994 RMK A01 T00301039  RH  061%=      5-min Rain = 0
KQU1 220359Z 14004KT 03/M04 A2994 RMK A01 T00301039  RH  061%=      5-min Rain = 0
KQU1 220400Z 14004KT 03/M04 A2994 RMK A01 T00301039  RH  061%=      5-min Rain = 0
KQU1 220401Z 14004KT 03/M04 A2994 RMK A01 T00291040  RH  061%=      5-min Rain = 0
KQU1 220402Z 13005KT 03/M04 A2993 RMK A01 T00291040  RH  061%=      5-min Rain = 0
KQU1 220403Z 14005KT 03/M04 A2993 RMK A01 T00281040  RH  061%=      5-min Rain = 0
KQU1 220404Z 14004KT 03/M04 A2994 RMK A01 T00271040  RH  061%=      5-min Rain = 0
KQU1 220405Z 14004KT 03/M04 A2994 RMK A01 T00271040  RH  061%=      5-min Rain = 0
KQU1 220406Z 14004KT 03/M04 A2994 RMK A01 T00261040  RH  061%=      5-min Rain = 0
KQU1 220407Z 14004KT 03/M04 A2994 RMK A01 T00261040  RH  062%=      5-min Rain = 0
KQU1 220408Z 14004KT 03/M04 A2994 RMK A01 T00261040  RH  062%=      5-min Rain = 0
KQU1 220409Z 14004KT 03/M04 A2994 RMK A01 T00261040  RH  062%=      5-min Rain = 0
KQU1 220410Z 14004KT 03/M04 A2994 RMK A01 T00251040  RH  062%=      5-min Rain = 0
KQU1 220411Z 14004KT 03/M04 A2994 RMK A01 T00251040  RH  062%=      5-min Rain = 0
KQU1 220412Z 13004KT 02/M04 A2994 RMK A01 T00241040  RH  062%=      5-min Rain = 0
KQU1 220413Z 14004KT 02/M04 A2994 RMK A01 T00241040  RH  063%=      5-min Rain = 0
KQU1 220414Z 13005KT 02/M04 A2994 RMK A01 T00241039  RH  063%=      5-min Rain = 0
KQU1 220415Z 14005KT 02/M04 A2994 RMK A01 T00241039  RH  063%=      5-min Rain = 0
KQU1 220416Z 13005KT 02/M04 A2994 RMK A01 T00241039  RH  063%=      5-min Rain = 0
KQU1 220417Z 13004KT 03/M04 A2994 RMK A01 T00251039  RH  063%=      5-min Rain = 0
KQU1 220418Z 13004KT 03/M04 A2994 RMK A01 T00251039  RH  063%=      5-min Rain = 0
KQU1 220419Z 13004KT 02/M04 A2994 RMK A01 T00241039  RH  063%=      5-min Rain = 0
KQU1 220420Z 14004KT 02/M04 A2994 RMK A01 T00241039  RH  063%=      5-min Rain = 0
KQU1 220421Z 14004KT 02/M04 A2994 RMK A01 T00241038  RH  063%=      5-min Rain = 0
KQU1 220422Z 14004KT 02/M04 A2994 RMK A01 T00241038  RH  063%=      5-min Rain = 0
KQU1 220423Z 13005KT 02/M04 A2994 RMK A01 T00241038  RH  063%=      5-min Rain = 0
KQU1 220424Z 13005KT 02/M04 A2994 RMK A01 T00241038  RH  063%=      5-min Rain = 0
KQU1 220425Z 14004KT 02/M04 A2994 RMK A01 T00241039  RH  063%=      5-min Rain = 0
KQU1 220426Z 14004KT 02/M04 A2994 RMK A01 T00231039  RH  064%=      5-min Rain = 0
KQU1 220427Z 14004KT 02/M04 A2994 RMK A01 T00231039  RH  064%=      5-min Rain = 0
KQU1 220428Z 15005KT 02/M04 A2994 RMK A01 T00231038  RH  064%=      5-min Rain = 0
KQU1 220429Z 15005KT 02/M04 A2994 RMK A01 T00231038  RH  064%=      5-min Rain = 0
KQU1 220430Z 15005KT 02/M04 A2994 RMK A01 T00231038  RH  064%=      5-min Rain = 0
KQU1 220431Z 15005KT 02/M04 A2994 RMK A01 T00221038  RH  064%=      5-min Rain = 0
KQU1 220432Z 15005KT 02/M04 A2994 RMK A01 T00221037  RH  065%=      5-min Rain = 0
KQU1 220433Z 14005KT 02/M04 A2994 RMK A01 T00221038  RH  065%=      5-min Rain = 0
KQU1 220434Z 15005KT 02/M04 A2994 RMK A01 T00221037  RH  065%=      5-min Rain = 0
KQU1 220435Z 15004KT 02/M04 A2994 RMK A01 T00221038  RH  065%=      5-min Rain = 0
KQU1 220436Z 13005KT 02/M04 A2994 RMK A01 T00211038  RH  065%=      5-min Rain = 0
KQU1 220437Z 14004KT 02/M04 A2994 RMK A01 T00221037  RH  065%=      5-min Rain = 0
KQU1 220438Z 14004KT 02/M04 A2994 RMK A01 T00221037  RH  065%=      5-min Rain = 0
KQU1 220439Z 14004KT 02/M04 A2994 RMK A01 T00221037  RH  065%=      5-min Rain = 0
KQU1 220440Z 14005KT 02/M04 A2994 RMK A01 T00211037  RH  065%=      5-min Rain = 0
KQU1 220441Z 14005KT 02/M04 A2994 RMK A01 T00211037  RH  065%=      5-min Rain = 0
KQU1 220442Z 14005KT 02/M04 A2994 RMK A01 T00211037  RH  066%=      5-min Rain = 0
KQU1 220443Z 14005KT 02/M04 A2994 RMK A01 T00211036  RH  066%=      5-min Rain = 0
KQU1 220444Z 14005KT 02/M04 A2994 RMK A01 T00211036  RH  066%=      5-min Rain = 0
KQU1 220445Z 14005KT 02/M04 A2994 RMK A01 T00211036  RH  066%=      5-min Rain = 0
KQU1 220446Z 14005KT 02/M04 A2994 RMK A01 T00211036  RH  066%=      5-min Rain = 0
KQU1 220447Z 14006KT 02/M04 A2994 RMK A01 T00211036  RH  066%=      5-min Rain = 0
KQU1 220448Z 14005KT 02/M04 A2994 RMK A01 T00211035  RH  067%=      5-min Rain = 0
KQU1 220449Z 14006KT 02/M04 A2994 RMK A01 T00201036  RH  066%=      5-min Rain = 0
KQU1 220450Z 14005KT 02/M04 A2994 RMK A01 T00201035  RH  067%=      5-min Rain = 0
KQU1 220451Z 14006KT 02/M04 A2994 RMK A01 T00201035  RH  067%=      5-min Rain = 0
KQU1 220452Z 14006KT 02/M04 A2994 RMK A01 T00201035  RH  067%=      5-min Rain = 0
KQU1 220453Z 14006KT 02/M04 A2994 RMK A01 T00191035  RH  067%=      5-min Rain = 0
KQU1 220454Z 15006KT 02/M04 A2994 RMK A01 T00191035  RH  067%=      5-min Rain = 0
KQU1 220455Z 15006KT 02/M04 A2994 RMK A01 T00191035  RH  068%=      5-min Rain = 0
KQU1 220456Z 14005KT 02/M04 A2994 RMK A01 T00181035  RH  068%=      5-min Rain = 0
KQU1 220457Z 14005KT 02/M04 A2994 RMK A01 T00181035  RH  068%=      5-min Rain = 0
KQU1 220458Z 14006KT 02/M04 A2994 RMK A01 T00171036  RH  068%=      5-min Rain = 0
KQU1 220459Z 14006KT 02/M04 A2994 RMK A01 T00171035  RH  068%=      5-min Rain = 0
KQU1 220500Z 14006KT 02/M04 A2994 RMK A01 T00171035  RH  068%=      5-min Rain = 0
KQU1 220501Z 14005KT 02/M04 A2994 RMK A01 T00161036  RH  068%=      5-min Rain = 0
KQU1 220502Z 14005KT 02/M04 A2994 RMK A01 T00161036  RH  068%=      5-min Rain = 0
KQU1 220503Z 15005KT 02/M04 A2994 RMK A01 T00151036  RH  069%=      5-min Rain = 0
KQU1 220504Z 15005KT 01/M04 A2994 RMK A01 T00141036  RH  069%=      5-min Rain = 0
KQU1 220505Z 15005KT 01/M04 A2994 RMK A01 T00141036  RH  069%=      5-min Rain = 0
KQU1 220506Z 15005KT 01/M04 A2994 RMK A01 T00141036  RH  070%=      5-min Rain = 0
KQU1 220507Z 15005KT 01/M04 A2994 RMK A01 T00141035  RH  070%=      5-min Rain = 0
KQU1 220508Z 15005KT 01/M03 A2994 RMK A01 T00141034  RH  070%=      5-min Rain = 0
KQU1 220509Z 16005KT 01/M03 A2994 RMK A01 T00141034  RH  070%=      5-min Rain = 0
KQU1 220510Z 16004KT 01/M03 A2994 RMK A01 T00141033  RH  071%=      5-min Rain = 0
KQU1 220511Z 16004KT 01/M03 A2994 RMK A01 T00141033  RH  071%=      5-min Rain = 0
KQU1 220512Z 16005KT 02/M03 A2994 RMK A01 T00151033  RH  071%=      5-min Rain = 0
KQU1 220513Z 15004KT 02/M03 A2994 RMK A01 T00151032  RH  071%=      5-min Rain = 0
KQU1 220514Z 16004KT 02/M03 A2994 RMK A01 T00151033  RH  070%=      5-min Rain = 0
KQU1 220515Z 16004KT 02/M03 A2994 RMK A01 T00151033  RH  070%=      5-min Rain = 0
KQU1 220516Z 16004KT 02/M03 A2994 RMK A01 T00151033  RH  070%=      5-min Rain = 0
KQU1 220517Z 16004KT 02/M03 A2994 RMK A01 T00151033  RH  071%=      5-min Rain = 0
KQU1 220518Z 16004KT 02/M03 A2993 RMK A01 T00151033  RH  071%=      5-min Rain = 0
KQU1 220519Z 15004KT 02/M03 A2993 RMK A01 T00151032  RH  071%=      5-min Rain = 0
KQU1 220520Z 15004KT 02/M03 A2993 RMK A01 T00151032  RH  071%=      5-min Rain = 0
KQU1 220521Z 15004KT 02/M03 A2993 RMK A01 T00151033  RH  071%=      5-min Rain = 0
KQU1 220522Z 15004KT 02/M03 A2993 RMK A01 T00151032  RH  071%=      5-min Rain = 0
KQU1 220523Z 14004KT 02/M03 A2993 RMK A01 T00151032  RH  071%=      5-min Rain = 0
KQU1 220524Z 15004KT 02/M03 A2993 RMK A01 T00151032  RH  071%=      5-min Rain = 0
KQU1 220525Z 14004KT 02/M03 A2993 RMK A01 T00151032  RH  071%=      5-min Rain = 0
KQU1 220526Z 14004KT 02/M03 A2993 RMK A01 T00151031  RH  071%=      5-min Rain = 0
KQU1 220527Z 14004KT 02/M03 A2993 RMK A01 T00161031  RH  071%=      5-min Rain = 0
KQU1 220528Z 14004KT 02/M03 A2993 RMK A01 T00161031  RH  071%=      5-min Rain = 0
KQU1 220529Z 14004KT 02/M03 A2993 RMK A01 T00161031  RH  071%=      5-min Rain = 0
KQU1 220530Z 14004KT 02/M03 A2993 RMK A01 T00161031  RH  071%=      5-min Rain = 0
KQU1 220531Z 14004KT 02/M03 A2993 RMK A01 T00161031  RH  071%=      5-min Rain = 0
KQU1 220532Z 14005KT 02/M03 A2993 RMK A01 T00161031  RH  071%=      5-min Rain = 0
KQU1 220533Z 13004KT 02/M03 A2993 RMK A01 T00161030  RH  072%=      5-min Rain = 0
KQU1 220534Z 13004KT 02/M03 A2993 RMK A01 T00161031  RH  071%=      5-min Rain = 0
KQU1 220535Z 13005KT 02/M03 A2993 RMK A01 T00151031  RH  071%=      5-min Rain = 0
KQU1 220536Z 13005KT 02/M03 A2993 RMK A01 T00151030  RH  072%=      5-min Rain = 0
KQU1 220537Z 13005KT 02/M03 A2993 RMK A01 T00151030  RH  072%=      5-min Rain = 0
KQU1 220538Z 12005KT 02/M03 A2993 RMK A01 T00161029  RH  072%=      5-min Rain = 0
KQU1 220539Z 12004KT 02/M03 A2993 RMK A01 T00161030  RH  072%=      5-min Rain = 0
KQU1 220540Z 12004KT 02/M03 A2993 RMK A01 T00151031  RH  072%=      5-min Rain = 0
KQU1 220541Z 12004KT 02/M03 A2993 RMK A01 T00151031  RH  072%=      5-min Rain = 0
KQU1 220542Z 12005KT 01/M03 A2993 RMK A01 T00141031  RH  072%=      5-min Rain = 0
KQU1 220543Z 12004KT 01/M03 A2993 RMK A01 T00141032  RH  072%=      5-min Rain = 0
KQU1 220544Z 12003KT 01/M03 A2993 RMK A01 T00131033  RH  072%=      5-min Rain = 0
KQU1 220545Z 12003KT 01/M03 A2993 RMK A01 T00121033  RH  072%=      5-min Rain = 0
KQU1 220546Z 12003KT 01/M03 A2993 RMK A01 T00121034  RH  072%=      5-min Rain = 0
KQU1 220547Z 12003KT 01/M03 A2993 RMK A01 T00111034  RH  072%=      5-min Rain = 0
KQU1 220548Z 11003KT 01/M03 A2993 RMK A01 T00101034  RH  072%=      5-min Rain = 0
KQU1 220549Z 11003KT 01/M04 A2993 RMK A01 T00091035  RH  072%=      5-min Rain = 0
KQU1 220550Z 11003KT 01/M04 A2993 RMK A01 T00091035  RH  072%=      5-min Rain = 0
KQU1 220551Z 11003KT 01/M04 A2993 RMK A01 T00081035  RH  073%=      5-min Rain = 0
KQU1 220552Z 11003KT 01/M04 A2993 RMK A01 T00081036  RH  073%=      5-min Rain = 0
KQU1 220553Z 11004KT 01/M04 A2993 RMK A01 T00071036  RH  073%=      5-min Rain = 0
KQU1 220554Z 11003KT 01/M04 A2993 RMK A01 T00071035  RH  073%=      5-min Rain = 0
KQU1 220555Z 10004KT 01/M04 A2993 RMK A01 T00071035  RH  074%=      5-min Rain = 0
KQU1 220556Z 10003KT 01/M03 A2993 RMK A01 T00071034  RH  074%=      5-min Rain = 0
KQU1 220557Z 10003KT 01/M03 A2993 RMK A01 T00081033  RH  074%=      5-min Rain = 0
KQU1 220558Z 09003KT 01/M03 A2993 RMK A01 T00091032  RH  074%=      5-min Rain = 0
KQU1 220559Z 09003KT 01/M03 A2993 RMK A01 T00091032  RH  074%=      5-min Rain = 0

Page generated in 0.0722 seconds.